K5BWX-2 Weather Reports


Display with metric or nautical units.
time (UTC)temp
F
wind
direction
speed
MPH
gust
MPH
rain 1hr
in
rain 24hr
in
rain mn
in
humidity
%
barometer
mb
20260904221104 85 74 2.0 9.0 0.00 0.00 0.00 66 1018.9
20260904220958 86 73 2.0 9.0 0.00 0.00 0.00 66 1018.9
20260904220859 86 182 3.0 9.0 0.00 0.00 0.00 66 1018.9
20260904220757 86 186 3.0 9.0 0.00 0.00 0.00 66 1018.8
20260904220658 86 116 3.0 9.0 0.00 0.00 0.00 66 1018.9
20260904220558 86 91 3.0 9.0 0.00 0.00 0.00 65 1018.9
20260904220457 86 178 3.0 9.0 0.00 0.00 0.00 65 1018.9
20260904220430 86 176 3.0 9.0 0.00 0.00 0.00 65 1018.9
20260904220422 86 157 3.0 9.0 0.00 0.00 0.00 65 1019.0
20260904220203 86 119 3.0 9.0 0.00 0.00 0.00 65 1019.0
20260904220058 85 141 3.0 9.0 0.00 0.00 0.00 66 1019.0
20260904215957 85 190 3.0 9.0 0.00 0.00 0.00 66 1019.0
20260904215858 85 176 3.0 9.0 0.00 0.00 0.00 65 1019.0
20260904215834 85 144 3.0 9.0 0.00 0.00 0.00 66 1019.1
20260904215821 85 125 3.0 9.0 0.00 0.00 0.00 66 1019.1
20260904215557 85 125 2.0 9.0 0.00 0.00 0.00 66 1019.1
20260904215502 85 196 2.0 8.0 0.00 0.00 0.00 66 1019.2
20260904215450 85 125 2.0 9.0 0.00 0.00 0.00 65 1019.1
20260904215444 85 87 2.0 9.0 0.00 0.00 0.00 66 1019.2
20260904215420 85 115 2.0 6.0 0.00 0.00 0.00 66 1019.1
20260904215403 85 150 2.0 6.0 0.00 0.00 0.00 66 1019.1
20260904215113 85 175 3.0 9.0 0.00 0.00 0.00 65 1019.1
20260904215109 86 202 3.0 9.0 0.00 0.00 0.00 65 1019.1
20260904215058 85 61 2.0 9.0 0.00 0.00 0.00 66 1019.1
20260904215051 86 184 3.0 9.0 0.00 0.00 0.00 65 1019.0
20260904215046 86 154 3.0 9.0 0.00 0.00 0.00 64 1019.0
20260904215026 85 160 2.0 9.0 0.00 0.00 0.00 67 1019.2
20260904215002 85 212 2.0 9.0 0.00 0.00 0.00 66 1019.1
20260904214940 85 174 2.0 9.0 0.00 0.00 0.00 66 1019.1
20260904214623 86 168 3.0 9.0 0.00 0.00 0.00 65 1019.1
20260904214057 86 155 3.0 9.0 0.00 0.00 0.00 64 1019.0
20260904213952 87 138 3.0 9.0 0.00 0.00 0.00 64 1018.9
20260904213851 87 129 3.0 9.0 0.00 0.00 0.00 64 1019.0
20260904213750 87 99 3.0 9.0 0.00 0.00 0.00 63 1018.9
20260904213715 87 128 3.0 8.0 0.00 0.00 0.00 63 1018.8
20260904213706 87 187 3.0 8.0 0.00 0.00 0.00 63 1018.8
20260904213447 87 186 2.0 8.0 0.00 0.00 0.00 62 1018.8
20260904213342 87 182 2.0 8.0 0.00 0.00 0.00 63 1018.8
20260904213240 87 175 2.0 8.0 0.00 0.00 0.00 63 1018.8
20260904213139 87 214 2.0 12.0 0.00 0.00 0.00 63 1018.7
20260904213043 87 167 3.0 12.0 0.00 0.00 0.00 62 1018.8
20260904212943 88 178 2.0 12.0 0.00 0.00 0.00 62 1018.8
20260904212825 87 160 2.0 12.0 0.00 0.00 0.00 62 1018.8
20260904212728 87 122 2.0 12.0 0.00 0.00 0.00 62 1018.8
20260904212709 87 126 2.0 12.0 0.00 0.00 0.00 62 1018.8
20260904212655 87 188 2.0 12.0 0.00 0.00 0.00 62 1018.8
20260904212431 88 126 2.0 12.0 0.00 0.00 0.00 61 1018.9
20260904212321 88 144 2.0 12.0 0.00 0.00 0.00 62 1018.9
20260904212221 88 175 2.0 12.0 0.00 0.00 0.00 60 1018.9
20260904212120 88 157 2.0 9.0 0.00 0.00 0.00 60 1018.9
20260904212019 88 113 2.0 7.0 0.00 0.00 0.00 60 1018.8
20260904211922 89 119 2.0 7.0 0.00 0.00 0.00 60 1019.0
20260904211846 89 119 2.0 7.0 0.00 0.00 0.00 58 1018.8
20260904211834 89 119 2.0 7.0 0.00 0.00 0.00 59 1018.9
20260904211613 89 118 2.0 10.0 0.00 0.00 0.00 57 1018.9
20260904211512 89 119 2.0 10.0 0.00 0.00 0.00 57 1018.9
20260904211444 89 169 3.0 10.0 0.00 0.00 0.00 55 1018.9
20260904211432 89 168 3.0 10.0 0.00 0.00 0.00 56 1018.9
20260904211205 89 94 3.0 10.0 0.00 0.00 0.00 53 1018.9
20260904211105 89 94 3.0 10.0 0.00 0.00 0.00 53 1018.9
20260904211053 90 100 4.0 11.0 0.00 0.00 0.00 52 1018.9
20260904211034 89 94 4.0 10.0 0.00 0.00 0.00 53 1018.9
20260904210907 90 101 4.0 10.0 0.00 0.00 0.00 54 1018.9
20260904210900 90 63 4.0 11.0 0.00 0.00 0.00 53 1018.8
20260904210842 90 100 4.0 11.0 0.00 0.00 0.00 53 1018.8
20260904210524 91 98 4.0 11.0 0.00 0.00 0.00 51 1019.0
20260904210519 91 55 3.0 11.0 0.00 0.00 0.00 52 1018.9
20260904210507 90 36 4.0 11.0 0.00 0.00 0.00 53 1018.9
20260904210444 90 32 4.0 11.0 0.00 0.00 0.00 53 1018.9
20260904210053 91 75 3.0 11.0 0.00 0.00 0.00 51 1018.9
20260904210026 92 40 2.0 11.0 0.00 0.00 0.00 54 1019.0
20260904210015 91 38 3.0 11.0 0.00 0.00 0.00 53 1019.0
20260904205743 92 47 2.0 8.0 0.00 0.00 0.00 54 1019.0
20260904205645 92 5 2.0 8.0 0.00 0.00 0.00 52 1019.1
20260904205542 92 53 2.0 8.0 0.00 0.00 0.00 52 1019.0
20260904205446 92 105 2.0 8.0 0.00 0.00 0.00 53 1019.0
20260904205349 92 34 2.0 8.0 0.00 0.00 0.00 52 1019.1
20260904205237 92 63 1.0 4.0 0.00 0.00 0.00 51 1019.1
20260904205219 92 52 2.0 4.0 0.00 0.00 0.00 55 1019.1
20260904205214 92 52 2.0 4.0 0.00 0.00 0.00 55 1019.2
20260904205202 92 72 2.0 4.0 0.00 0.00 0.00 55 1019.1
20260904205138 92 52 2.0 4.0 0.00 0.00 0.00 54 1019.1
20260904205009 92 52 2.0 4.0 0.00 0.00 0.00 55 1019.1
20260904204630 91 136 2.0 4.0 0.00 0.00 0.00 55 1019.2
20260904204529 91 138 2.0 4.0 0.00 0.00 0.00 54 1019.1
20260904204427 91 68 1.0 4.0 0.00 0.00 0.00 54 1019.1
20260904204326 91 59 1.0 4.0 0.00 0.00 0.00 55 1019.2
20260904204258 91 77 1.0 4.0 0.00 0.00 0.00 53 1019.3
20260904204244 91 53 1.0 4.0 0.00 0.00 0.00 54 1019.2
20260904204220 91 77 1.0 4.0 0.00 0.00 0.00 54 1019.1
20260904204046 91 77 1.0 4.0 0.00 0.00 0.00 55 1019.2
20260904203922 91 77 1.0 4.0 0.00 0.00 0.00 54 1019.2
20260904203912 91 77 1.0 4.0 0.00 0.00 0.00 53 1019.4
20260904203853 91 77 1.0 4.0 0.00 0.00 0.00 53 1019.3
20260904203515 91 77 1.0 4.0 0.00 0.00 0.00 53 1019.4
20260904203411 91 77 1.0 4.0 0.00 0.00 0.00 55 1019.4
20260904203310 91 50 2.0 6.0 0.00 0.00 0.00 54 1019.4
20260904203207 91 42 2.0 6.0 0.00 0.00 0.00 54 1019.4
20260904203108 91 42 2.0 6.0 0.00 0.00 0.00 55 1019.4
20260904203009 91 42 2.0 6.0 0.00 0.00 0.00 53 1019.3
20260904202907 91 42 2.0 6.0 0.00 0.00 0.00 52 1019.3
20260904202804 91 53 2.0 6.0 0.00 0.00 0.00 54 1019.3
20260904202654 91 40 3.0 6.0 0.00 0.00 0.00 54 1019.4
20260904202554 91 62 3.0 6.0 0.00 0.00 0.00 54 1019.4
20260904202453 91 65 3.0 7.0 0.00 0.00 0.00 54 1019.5
20260904202354 91 65 3.0 8.0 0.00 0.00 0.00 54 1019.5
20260904202320 91 64 3.0 8.0 0.00 0.00 0.00 53 1019.6
20260904202309 91 64 3.0 8.0 0.00 0.00 0.00 53 1019.5
20260904202043 92 54 3.0 8.0 0.00 0.00 0.00 53 1019.5
20260904201945 92 71 3.0 8.0 0.00 0.00 0.00 53 1019.6
20260904201844 92 73 4.0 8.0 0.00 0.00 0.00 52 1019.5
20260904201816 92 58 3.0 8.0 0.00 0.00 0.00 51 1019.5
20260904201805 92 57 3.0 8.0 0.00 0.00 0.00 52 1019.5
20260904201612 92 76 3.0 8.0 0.00 0.00 0.00 53 1019.5
20260904201603 92 71 3.0 8.0 0.00 0.00 0.00 53 1019.6
20260904201341 92 107 3.0 6.0 0.00 0.00 0.00 53 1019.5
20260904201238 92 79 3.0 6.0 0.00 0.00 0.00 53 1019.6
20260904201131 92 83 2.0 6.0 0.00 0.00 0.00 53 1019.6
20260904201033 92 98 2.0 5.0 0.00 0.00 0.00 53 1019.6
20260904200929 92 75 2.0 6.0 0.00 0.00 0.00 54 1019.6
20260904200829 92 69 2.0 6.0 0.00 0.00 0.00 53 1019.6
20260904200730 92 57 2.0 6.0 0.00 0.00 0.00 53 1019.6
20260904200703 92 44 2.0 6.0 0.00 0.00 0.00 53 1019.5
20260904200651 92 69 2.0 6.0 0.00 0.00 0.00 53 1019.5
20260904200430 92 57 2.0 6.0 0.00 0.00 0.00 52 1019.4
20260904200335 92 57 2.0 6.0 0.00 0.00 0.00 53 1019.5
20260904200230 92 57 2.0 6.0 0.00 0.00 0.00 52 1019.5
20260904200132 92 57 2.0 6.0 0.00 0.00 0.00 52 1019.5
20260904200106 92 104 2.0 7.0 0.00 0.00 0.00 53 1019.5
20260904200055 92 55 2.0 7.0 0.00 0.00 0.00 53 1019.5
20260904195828 92 72 2.0 7.0 0.00 0.00 0.00 52 1019.5
20260904195727 92 82 2.0 7.0 0.00 0.00 0.00 52 1019.5
20260904195629 92 57 2.0 7.0 0.00 0.00 0.00 53 1019.4
20260904195525 92 57 3.0 7.0 0.00 0.00 0.00 53 1019.5
20260904195434 92 57 3.0 7.0 0.00 0.00 0.00 52 1019.5
20260904195408 92 116 3.0 8.0 0.00 0.00 0.00 53 1019.4
20260904195353 92 61 3.0 8.0 0.00 0.00 0.00 53 1019.4
20260904195124 92 91 3.0 8.0 0.00 0.00 0.00 54 1019.5
20260904195024 92 351 3.0 9.0 0.00 0.00 0.00 54 1019.6
20260904194925 91 340 3.0 9.0 0.00 0.00 0.00 54 1019.6
20260904194825 91 332 4.0 11.0 0.00 0.00 0.00 54 1019.7
20260904194723 91 23 4.0 11.0 0.00 0.00 0.00 54 1019.7
20260904194623 91 103 4.0 11.0 0.00 0.00 0.00 53 1019.6
20260904194525 91 120 4.0 11.0 0.00 0.00 0.00 54 1019.7
20260904194426 91 113 4.0 11.0 0.00 0.00 0.00 54 1019.7
20260904194326 91 52 4.0 11.0 0.00 0.00 0.00 54 1019.8
20260904194225 91 38 4.0 11.0 0.00 0.00 0.00 55 1019.8
20260904194122 91 76 4.0 11.0 0.00 0.00 0.00 54 1019.8
20260904194026 91 72 4.0 11.0 0.00 0.00 0.00 54 1019.8
20260904193922 91 86 3.0 11.0 0.00 0.00 0.00 57 1019.8
20260904193824 91 120 3.0 8.0 0.00 0.00 0.00 56 1019.8
20260904193717 91 65 3.0 8.0 0.00 0.00 0.00 55 1019.9
20260904193615 90 54 3.0 8.0 0.00 0.00 0.00 55 1019.8
20260904193532 90 69 3.0 8.0 0.00 0.00 0.00 57 1019.9
20260904193517 90 63 4.0 8.0 0.00 0.00 0.00 55 1019.8
20260904193510 90 98 3.0 8.0 0.00 0.00 0.00 56 1019.9
20260904193451 90 46 4.0 8.0 0.00 0.00 0.00 55 1019.9
20260904193112 90 96 3.0 8.0 0.00 0.00 0.00 57 1019.9
20260904193009 90 97 3.0 8.0 0.00 0.00 0.00 56 1020.1
20260904192911 90 96 3.0 8.0 0.00 0.00 0.00 56 1020.2
20260904192810 90 65 3.0 8.0 0.00 0.00 0.00 56 1020.2
20260904192720 90 91 3.0 8.0 0.00 0.00 0.00 55 1020.1
20260904192610 90 78 3.0 8.0 0.00 0.00 0.00 58 1020.2
20260904192511 90 62 2.0 8.0 0.00 0.00 0.00 57 1020.2
20260904192412 90 65 2.0 7.0 0.00 0.00 0.00 57 1020.1
20260904192309 90 355 2.0 7.0 0.00 0.00 0.00 57 1020.2
20260904192202 90 355 3.0 7.0 0.00 0.00 0.00 57 1020.2
20260904192104 90 355 2.0 7.0 0.00 0.00 0.00 56 1020.3
20260904192003 89 355 2.0 7.0 0.00 0.00 0.00 57 1020.3
20260904191904 89 355 2.0 7.0 0.00 0.00 0.00 58 1020.4
20260904191804 89 336 2.0 7.0 0.00 0.00 0.00 57 1020.4
20260904191703 89 86 2.0 7.0 0.00 0.00 0.00 58 1020.4
20260904191601 89 59 2.0 6.0 0.00 0.00 0.00 59 1020.4
20260904191500 89 109 2.0 6.0 0.00 0.00 0.00 60 1020.4
20260904191400 89 104 2.0 6.0 0.00 0.00 0.00 60 1020.4
20260904191300 88 101 2.0 6.0 0.00 0.00 0.00 59 1020.5
20260904191243 88 60 1.0 6.0 0.00 0.00 0.00 61 1020.5
20260904191231 88 65 2.0 6.0 0.00 0.00 0.00 61 1020.5
20260904190958 88 54 1.0 6.0 0.00 0.00 0.00 61 1020.5
20260904190857 88 80 1.0 6.0 0.00 0.00 0.00 62 1020.5
20260904190758 88 88 1.0 6.0 0.00 0.00 0.00 63 1020.5
20260904190657 87 101 1.0 5.0 0.00 0.00 0.00 63 1020.5
20260904190601 87 26 1.0 3.0 0.00 0.00 0.00 62 1020.5
20260904190535 87 34 2.0 3.0 0.00 0.00 0.00 62 1020.5
20260904190523 87 34 2.0 3.0 0.00 0.00 0.00 63 1020.5
20260904190500 87 34 2.0 3.0 0.00 0.00 0.00 61 1020.5
20260904190325 87 34 2.0 3.0 0.00 0.00 0.00 61 1020.5
20260904190054 87 34 1.0 3.0 0.00 0.00 0.00 61 1020.5
20260904190042 87 35 2.0 3.0 0.00 0.00 0.00 61 1020.5
20260904190031 87 34 2.0 3.0 0.00 0.00 0.00 61 1020.5
20260904185753 87 35 1.0 3.0 0.00 0.00 0.00 60 1020.6
20260904185653 87 35 1.0 3.0 0.00 0.00 0.00 60 1020.5
20260904185555 87 35 1.0 3.0 0.00 0.00 0.00 60 1020.5
20260904185452 87 35 1.0 3.0 0.00 0.00 0.00 60 1020.6
20260904185351 87 35 1.0 3.0 0.00 0.00 0.00 61 1020.6
20260904185248 87 34 1.0 3.0 0.00 0.00 0.00 60 1020.6
20260904185149 87 34 1.0 3.0 0.00 0.00 0.00 60 1020.7
20260904185121 87 34 1.0 3.0 0.00 0.00 0.00 60 1020.6
20260904185110 87 34 1.0 3.0 0.00 0.00 0.00 62 1020.6
20260904184844 87 34 0.0 3.0 0.00 0.00 0.00 62 1020.6
20260904184743 87 34 0.0 3.0 0.00 0.00 0.00 61 1020.6
20260904184642 87 34 0.0 2.0 0.00 0.00 0.00 63 1020.6
20260904184613 87 34 1.0 2.0 0.00 0.00 0.00 63 1020.6
20260904184602 87 34 0.0 2.0 0.00 0.00 0.00 62 1020.6
20260904184338 87 34 1.0 2.0 0.00 0.00 0.00 62 1020.7
20260904184236 87 34 1.0 2.0 0.00 0.00 0.00 63 1020.6
20260904184135 87 34 1.0 2.0 0.00 0.00 0.00 62 1020.7
20260904184038 87 34 1.0 2.0 0.00 0.00 0.00 61 1020.7
20260904183935 87 34 1.0 2.0 0.00 0.00 0.00 61 1020.7
20260904183835 87 34 1.0 2.0 0.00 0.00 0.00 61 1020.7
20260904183732 87 34 1.0 2.0 0.00 0.00 0.00 61 1020.6
20260904183633 87 34 1.0 2.0 0.00 0.00 0.00 62 1020.8
20260904183532 87 34 1.0 2.0 0.00 0.00 0.00 62 1020.8
20260904183431 87 34 1.0 2.0 0.00 0.00 0.00 61 1020.7
20260904183350 87 34 1.0 3.0 0.00 0.00 0.00 63 1020.9
20260904183338 87 34 1.0 2.0 0.00 0.00 0.00 62 1020.8
20260904183317 87 34 1.0 2.0 0.00 0.00 0.00 62 1020.8
20260904183154 87 34 1.0 2.0 0.00 0.00 0.00 64 1020.9
20260904182957 87 35 2.0 4.0 0.00 0.00 0.00 62 1020.9
20260904182951 87 35 2.0 4.0 0.00 0.00 0.00 64 1020.9
20260904182947 87 35 1.0 4.0 0.00 0.00 0.00 63 1020.9
20260904182940 87 34 1.0 4.0 0.00 0.00 0.00 62 1021.0
20260904182911 87 35 1.0 4.0 0.00 0.00 0.00 62 1020.9
20260904182746 87 35 1.0 4.0 0.00 0.00 0.00 61 1021.0
20260904182722 87 35 1.0 4.0 0.00 0.00 0.00 61 1020.9
20260904182658 87 35 1.0 4.0 0.00 0.00 0.00 64 1020.9
20260904182246 87 35 2.0 4.0 0.00 0.00 0.00 64 1020.9
20260904182020 87 36 2.0 4.0 0.00 0.00 0.00 62 1020.9
20260904181949 87 50 1.0 3.0 0.00 0.00 0.00 61 1021.0
20260904181939 87 50 2.0 3.0 0.00 0.00 0.00 63 1021.0
20260904181915 87 50 2.0 3.0 0.00 0.00 0.00 62 1020.9
20260904181803 87 50 1.0 5.0 0.00 0.00 0.00 61 1021.1
20260904181757 87 50 2.0 5.0 0.00 0.00 0.00 61 1021.1
20260904181747 87 50 2.0 3.0 0.00 0.00 0.00 61 1021.0
20260904181557 87 50 1.0 3.0 0.00 0.00 0.00 62 1021.1
20260904181209 87 50 2.0 5.0 0.00 0.00 0.00 61 1021.1
20260904181109 87 26 2.0 5.0 0.00 0.00 0.00 62 1021.0
20260904181000 88 26 2.0 5.0 0.00 0.00 0.00 61 1021.1
20260904180945 88 24 2.0 9.0 0.00 0.00 0.00 61 1021.1
20260904180934 88 26 2.0 5.0 0.00 0.00 0.00 60 1021.1
20260904180701 88 355 3.0 9.0 0.00 0.00 0.00 61 1021.1
20260904180559 88 355 3.0 9.0 0.00 0.00 0.00 60 1021.1
20260904180455 88 355 3.0 9.0 0.00 0.00 0.00 59 1021.1
20260904180423 88 5 3.0 9.0 0.00 0.00 0.00 59 1021.0
20260904180255 88 351 3.0 9.0 0.00 0.00 0.00 60 1021.0
20260904180154 88 53 3.0 9.0 0.00 0.00 0.00 60 1021.1
20260904180054 88 44 4.0 9.0 0.00 0.00 0.00 61 1021.1
20260904180019 89 19 3.0 9.0 0.00 0.00 0.00 59 1021.1
20260904180007 89 342 4.0 9.0 0.00 0.00 0.00 59 1021.1
20260904175748 89 339 3.0 8.0 0.00 0.00 0.00 59 1021.1
20260904175649 89 26 3.0 8.0 0.00 0.00 0.00 60 1021.1
20260904175546 89 314 3.0 8.0 0.00 0.00 0.00 60 1021.1
20260904175435 89 317 3.0 8.0 0.00 0.00 0.00 59 1021.1
20260904175409 88 268 2.0 8.0 0.00 0.00 0.00 59 1021.1
20260904175359 88 290 3.0 8.0 0.00 0.00 0.00 59 1021.1
20260904175133 88 298 2.0 8.0 0.00 0.00 0.00 60 1021.2
20260904175033 88 298 1.0 7.0 0.00 0.00 0.00 61 1021.2
20260904174930 88 254 1.0 5.0 0.00 0.00 0.00 60 1021.2
20260904174904 88 298 1.0 4.0 0.00 0.00 0.00 59 1021.2
20260904174854 88 298 1.0 4.0 0.00 0.00 0.00 61 1021.2
20260904174627 88 302 1.0 4.0 0.00 0.00 0.00 62 1021.2
20260904174525 88 77 1.0 4.0 0.00 0.00 0.00 62 1021.2
20260904174420 88 77 2.0 4.0 0.00 0.00 0.00 61 1021.1
20260904174318 87 77 2.0 6.0 0.00 0.00 0.00 61 1021.1
20260904174220 87 78 2.0 6.0 0.00 0.00 0.00 61 1021.2
20260904174119 87 71 2.0 6.0 0.00 0.00 0.00 61 1021.2
20260904174020 87 71 2.0 6.0 0.00 0.00 0.00 61 1021.2
20260904173911 87 71 2.0 6.0 0.00 0.00 0.00 61 1021.2
20260904173811 87 71 3.0 6.0 0.00 0.00 0.00 61 1021.2
20260904173712 87 71 3.0 6.0 0.00 0.00 0.00 60 1021.2
20260904173612 87 71 3.0 6.0 0.00 0.00 0.00 60 1021.2
20260904173510 87 72 3.0 6.0 0.00 0.00 0.00 60 1021.2
20260904173409 87 82 3.0 6.0 0.00 0.00 0.00 61 1021.2
20260904173308 87 102 3.0 6.0 0.00 0.00 0.00 61 1021.3
20260904173207 87 107 2.0 5.0 0.00 0.00 0.00 60 1021.3
20260904173105 87 70 2.0 5.0 0.00 0.00 0.00 61 1021.3
20260904173010 87 70 3.0 5.0 0.00 0.00 0.00 63 1021.3
20260904172901 87 70 3.0 5.0 0.00 0.00 0.00 60 1021.3
20260904172802 87 71 2.0 5.0 0.00 0.00 0.00 60 1021.3
20260904172736 87 69 2.0 5.0 0.00 0.00 0.00 60 1021.3
20260904172724 87 69 2.0 5.0 0.00 0.00 0.00 60 1021.2
20260904172458 87 69 2.0 5.0 0.00 0.00 0.00 60 1021.3
20260904172349 87 74 1.0 5.0 0.00 0.00 0.00 61 1021.3
20260904172254 87 44 1.0 5.0 0.00 0.00 0.00 60 1021.3
20260904172217 87 54 1.0 5.0 0.00 0.00 0.00 60 1021.4
20260904172207 87 45 1.0 5.0 0.00 0.00 0.00 59 1021.4
20260904171945 87 47 1.0 4.0 0.00 0.00 0.00 58 1021.4
20260904171912 88 165 1.0 4.0 0.00 0.00 0.00 60 1021.4
20260904171902 88 65 1.0 4.0 0.00 0.00 0.00 61 1021.4
20260904171640 88 165 1.0 4.0 0.00 0.00 0.00 60 1021.3
20260904171541 87 165 1.0 4.0 0.00 0.00 0.00 60 1021.3
20260904171441 87 165 1.0 4.0 0.00 0.00 0.00 60 1021.3
20260904171339 87 166 1.0 4.0 0.00 0.00 0.00 60 1021.3
20260904171236 87 166 1.0 4.0 0.00 0.00 0.00 59 1021.3
20260904171134 87 166 1.0 4.0 0.00 0.00 0.00 59 1021.3
20260904171035 88 104 1.0 4.0 0.00 0.00 0.00 61 1021.3
20260904170934 87 104 0.0 4.0 0.00 0.00 0.00 60 1021.4
20260904170826 88 104 0.0 4.0 0.00 0.00 0.00 60 1021.4
20260904170726 88 104 0.0 2.0 0.00 0.00 0.00 59 1021.3
20260904170720 88 104 0.0 1.0 0.00 0.00 0.00 61 1021.3
20260904170703 88 104 0.0 2.0 0.00 0.00 0.00 59 1021.3
20260904170422 88 104 1.0 3.0 0.00 0.00 0.00 62 1021.3
20260904170318 88 104 1.0 3.0 0.00 0.00 0.00 62 1021.3
20260904170218 88 104 1.0 3.0 0.00 0.00 0.00 62 1021.3
20260904170119 87 104 1.0 3.0 0.00 0.00 0.00 61 1021.3
20260904170030 87 104 2.0 4.0 0.00 0.00 0.00 58 1021.4
20260904170020 87 104 1.0 3.0 0.00 0.00 0.00 59 1021.3
20260904170013 87 104 2.0 4.0 0.00 0.00 0.00 58 1021.4
20260904165955 87 104 1.0 4.0 0.00 0.00 0.00 59 1021.4
20260904165646 87 104 2.0 4.0 0.00 0.00 0.00 58 1021.4
20260904165634 87 104 2.0 4.0 0.00 0.00 0.00 58 1021.4
20260904165409 88 99 2.0 4.0 0.00 0.00 0.00 57 1021.4
20260904165308 88 99 1.0 4.0 0.00 0.00 0.00 61 1021.4
20260904165203 88 99 1.0 4.0 0.00 0.00 0.00 61 1021.4
20260904165104 88 99 1.0 4.0 0.00 0.00 0.00 60 1021.4
20260904165002 88 99 1.0 4.0 0.00 0.00 0.00 60 1021.4
20260904164903 88 110 1.0 4.0 0.00 0.00 0.00 59 1021.4
20260904164803 88 80 1.0 4.0 0.00 0.00 0.00 60 1021.4
20260904164703 89 82 1.0 6.0 0.00 0.00 0.00 61 1021.4
20260904164630 89 162 1.0 6.0 0.00 0.00 0.00 60 1021.4
20260904164616 89 83 1.0 6.0 0.00 0.00 0.00 60 1021.4
20260904164609 89 103 2.0 6.0 0.00 0.00 0.00 58 1021.4
20260904164534 89 83 1.0 6.0 0.00 0.00 0.00 60 1021.3
20260904164407 89 162 1.0 6.0 0.00 0.00 0.00 59 1021.3
20260904164339 89 162 1.0 6.0 0.00 0.00 0.00 60 1021.4
20260904164152 89 162 2.0 6.0 0.00 0.00 0.00 61 1021.4
20260904164029 89 163 2.0 6.0 0.00 0.00 0.00 59 1021.4
20260904163754 89 112 2.0 6.0 0.00 0.00 0.00 59 1021.5
20260904163650 89 63 1.0 5.0 0.00 0.00 0.00 62 1021.5
20260904163551 89 20 1.0 5.0 0.00 0.00 0.00 60 1021.4
20260904163448 88 9 1.0 5.0 0.00 0.00 0.00 60 1021.4
20260904163351 88 36 2.0 5.0 0.00 0.00 0.00 59 1021.5
20260904163246 88 36 2.0 5.0 0.00 0.00 0.00 59 1021.4
20260904163146 88 36 2.0 5.0 0.00 0.00 0.00 60 1021.5
20260904163046 88 34 2.0 5.0 0.00 0.00 0.00 59 1021.7
20260904162943 89 31 2.0 4.0 0.00 0.00 0.00 59 1021.5
20260904162842 89 298 2.0 4.0 0.00 0.00 0.00 59 1021.4
20260904162742 89 132 2.0 4.0 0.00 0.00 0.00 58 1021.5
20260904162638 89 132 1.0 4.0 0.00 0.00 0.00 58 1021.5
20260904162613 89 85 1.0 4.0 0.00 0.00 0.00 59 1021.7
20260904162601 89 85 1.0 4.0 0.00 0.00 0.00 58 1021.5
20260904162338 89 19 1.0 4.0 0.00 0.00 0.00 58 1021.7
20260904162240 89 16 1.0 4.0 0.00 0.00 0.00 58 1021.7
20260904162137 89 0 1.0 4.0 0.00 0.00 0.00 57 1021.7
20260904162031 89 0 1.0 4.0 0.00 0.00 0.00 58 1021.8
20260904161929 89 290 1.0 3.0 0.00 0.00 0.00 62 1021.8
20260904161831 89 120 1.0 3.0 0.00 0.00 0.00 63 1021.8
20260904161729 89 120 1.0 7.0 0.00 0.00 0.00 64 1021.7
20260904161628 88 120 1.0 7.0 0.00 0.00 0.00 63 1021.7
20260904161530 88 120 1.0 7.0 0.00 0.00 0.00 62 1021.8
20260904161430 88 120 1.0 7.0 0.00 0.00 0.00 62 1021.8
20260904161329 88 121 1.0 7.0 0.00 0.00 0.00 64 1021.8
20260904161228 88 121 1.0 7.0 0.00 0.00 0.00 64 1021.8
20260904161203 88 121 1.0 7.0 0.00 0.00 0.00 63 1021.8
20260904161152 88 121 1.0 7.0 0.00 0.00 0.00 64 1021.8
20260904160930 88 256 1.0 7.0 0.00 0.00 0.00 64 1021.8
20260904160828 88 256 1.0 7.0 0.00 0.00 0.00 63 1021.8
20260904160750 88 189 1.0 5.0 0.00 0.00 0.00 64 1021.8
20260904160744 88 188 2.0 5.0 0.00 0.00 0.00 64 1021.8
20260904160731 88 238 1.0 5.0 0.00 0.00 0.00 65 1021.8
20260904160710 88 189 1.0 5.0 0.00 0.00 0.00 63 1021.8
20260904160326 88 250 2.0 5.0 0.00 0.00 0.00 64 1021.8
20260904160228 88 250 2.0 5.0 0.00 0.00 0.00 63 1021.8
20260904160124 88 200 2.0 5.0 0.00 0.00 0.00 63 1021.8
20260904160023 88 229 2.0 5.0 0.00 0.00 0.00 64 1021.8
20260904155923 88 229 2.0 5.0 0.00 0.00 0.00 63 1021.9
20260904155824 88 229 2.0 5.0 0.00 0.00 0.00 63 1021.8
20260904155724 88 229 2.0 5.0 0.00 0.00 0.00 63 1021.9
20260904155624 87 225 2.0 4.0 0.00 0.00 0.00 63 1021.9
20260904155556 87 196 2.0 4.0 0.00 0.00 0.00 63 1021.9
20260904155543 87 221 2.0 4.0 0.00 0.00 0.00 63 1021.9
20260904155324 87 207 2.0 5.0 0.00 0.00 0.00 63 1021.9
20260904155230 87 208 2.0 5.0 0.00 0.00 0.00 66 1021.9
20260904155159 87 276 2.0 5.0 0.00 0.00 0.00 64 1021.9
20260904155149 87 275 2.0 5.0 0.00 0.00 0.00 65 1021.9
20260904154958 86 322 2.0 5.0 0.00 0.00 0.00 67 1021.9
20260904154947 87 272 2.0 5.0 0.00 0.00 0.00 65 1021.9
20260904154723 86 250 2.0 5.0 0.00 0.00 0.00 68 1021.9
20260904154646 85 177 2.0 5.0 0.00 0.00 0.00 66 1021.9
20260904154631 86 250 2.0 5.0 0.00 0.00 0.00 67 1021.9
20260904154614 85 172 2.0 5.0 0.00 0.00 0.00 68 1021.9
20260904154604 85 172 2.0 5.0 0.00 0.00 0.00 70 1022.0
20260904154552 86 250 2.0 5.0 0.00 0.00 0.00 69 1021.9
20260904154528 85 288 2.0 5.0 0.00 0.00 0.00 68 1022.0
20260904154452 85 177 2.0 5.0 0.00 0.00 0.00 68 1021.9
20260904153925 85 167 2.0 5.0 0.00 0.00 0.00 69 1021.9
20260904153827 85 167 2.0 5.0 0.00 0.00 0.00 70 1021.8
20260904153724 85 165 2.0 4.0 0.00 0.00 0.00 71 1021.9
20260904153657 85 165 2.0 4.0 0.00 0.00 0.00 71 1021.8
20260904153644 85 165 2.0 4.0 0.00 0.00 0.00 71 1021.8
20260904153421 85 260 2.0 4.0 0.00 0.00 0.00 71 1021.8
20260904153325 84 260 2.0 4.0 0.00 0.00 0.00 71 1021.8
20260904153314 84 200 2.0 5.0 0.00 0.00 0.00 70 1021.8
20260904153251 84 267 2.0 5.0 0.00 0.00 0.00 71 1021.8
20260904153019 84 200 2.0 5.0 0.00 0.00 0.00 69 1021.9
20260904152922 84 227 2.0 5.0 0.00 0.00 0.00 71 1021.8
20260904152821 84 214 2.0 5.0 0.00 0.00 0.00 72 1021.8
20260904152723 84 194 2.0 5.0 0.00 0.00 0.00 71 1021.8
20260904152619 84 194 2.0 5.0 0.00 0.00 0.00 71 1021.8
20260904152519 84 193 2.0 5.0 0.00 0.00 0.00 72 1021.8
20260904152427 84 193 2.0 5.0 0.00 0.00 0.00 72 1021.8
20260904152320 84 186 2.0 5.0 0.00 0.00 0.00 71 1021.8
20260904152220 84 242 2.0 5.0 0.00 0.00 0.00 70 1021.8
20260904152123 84 242 2.0 5.0 0.00 0.00 0.00 70 1021.9
20260904152019 84 240 2.0 5.0 0.00 0.00 0.00 71 1021.8
20260904151919 84 220 2.0 5.0 0.00 0.00 0.00 71 1021.9
20260904151820 84 172 2.0 5.0 0.00 0.00 0.00 71 1021.8
20260904151719 84 172 2.0 5.0 0.00 0.00 0.00 72 1021.8
20260904151619 84 172 2.0 5.0 0.00 0.00 0.00 72 1021.8
20260904151518 83 172 2.0 5.0 0.00 0.00 0.00 72 1021.9
20260904151419 83 198 2.0 5.0 0.00 0.00 0.00 72 1021.9
20260904151358 83 221 2.0 5.0 0.00 0.00 0.00 72 1021.8
20260904151346 83 190 2.0 5.0 0.00 0.00 0.00 72 1021.8
20260904151118 83 221 2.0 5.0 0.00 0.00 0.00 72 1021.8
20260904151023 83 221 2.0 5.0 0.00 0.00 0.00 73 1021.8
20260904150919 83 221 2.0 5.0 0.00 0.00 0.00 72 1021.8
20260904150818 83 221 2.0 5.0 0.00 0.00 0.00 72 1021.9
20260904150757 83 202 2.0 4.0 0.00 0.00 0.00 72 1021.8
20260904150743 83 224 2.0 4.0 0.00 0.00 0.00 72 1021.8
20260904150556 83 212 2.0 4.0 0.00 0.00 0.00 72 1021.8
20260904150544 83 202 2.0 4.0 0.00 0.00 0.00 71 1021.9
20260904150319 83 217 2.0 4.0 0.00 0.00 0.00 72 1021.8
20260904150219 83 217 2.0 6.0 0.00 0.00 0.00 72 1021.8
20260904150119 83 217 2.0 6.0 0.00 0.00 0.00 72 1021.8
20260904150053 83 216 2.0 6.0 0.00 0.00 0.00 73 1021.7
20260904150044 83 217 2.0 6.0 0.00 0.00 0.00 72 1021.7
20260904145819 83 235 2.0 6.0 0.00 0.00 0.00 72 1021.8
20260904145718 83 238 2.0 6.0 0.00 0.00 0.00 72 1021.8
20260904145620 83 240 2.0 6.0 0.00 0.00 0.00 72 1021.7
20260904145520 83 240 2.0 6.0 0.00 0.00 0.00 73 1021.7
20260904145417 83 232 2.0 6.0 0.00 0.00 0.00 73 1021.7
20260904145317 83 221 2.0 6.0 0.00 0.00 0.00 74 1021.7
20260904145216 83 225 2.0 5.0 0.00 0.00 0.00 74 1021.7
20260904145117 83 232 2.0 5.0 0.00 0.00 0.00 74 1021.7
20260904145054 82 232 2.0 5.0 0.00 0.00 0.00 73 1021.7
20260904145043 82 232 2.0 5.0 0.00 0.00 0.00 73 1021.7
20260904144810 82 232 3.0 5.0 0.00 0.00 0.00 73 1021.7
20260904144712 82 232 3.0 5.0 0.00 0.00 0.00 73 1021.7
20260904144613 82 233 2.0 4.0 0.00 0.00 0.00 73 1021.7
20260904144511 82 238 3.0 4.0 0.00 0.00 0.00 73 1021.5
20260904144410 82 277 2.0 4.0 0.00 0.00 0.00 72 1021.7
20260904144308 82 272 2.0 4.0 0.00 0.00 0.00 73 1021.5
20260904144208 82 198 2.0 4.0 0.00 0.00 0.00 73 1021.7
20260904144111 82 200 2.0 4.0 0.00 0.00 0.00 73 1021.5
20260904144008 82 205 2.0 4.0 0.00 0.00 0.00 75 1021.5
20260904143905 82 234 2.0 4.0 0.00 0.00 0.00 72 1021.5
20260904143801 82 231 2.0 4.0 0.00 0.00 0.00 73 1021.5
20260904143658 81 202 2.0 4.0 0.00 0.00 0.00 73 1021.5
20260904143559 81 200 2.0 4.0 0.00 0.00 0.00 73 1021.5
20260904143458 81 230 2.0 4.0 0.00 0.00 0.00 73 1021.5
20260904143357 81 219 2.0 4.0 0.00 0.00 0.00 74 1021.7
20260904143300 81 219 2.0 5.0 0.00 0.00 0.00 74 1021.5
20260904143155 81 219 2.0 5.0 0.00 0.00 0.00 73 1021.5
20260904143057 81 215 2.0 5.0 0.00 0.00 0.00 74 1021.5
20260904143051 81 206 2.0 5.0 0.00 0.00 0.00 74 1021.5
20260904143031 81 207 2.0 5.0 0.00 0.00 0.00 74 1021.7
20260904142837 81 200 2.0 5.0 0.00 0.00 0.00 75 1021.5
20260904142832 81 315 2.0 5.0 0.00 0.00 0.00 73 1021.5
20260904142818 81 206 2.0 5.0 0.00 0.00 0.00 73 1021.5
20260904142634 81 316 2.0 5.0 0.00 0.00 0.00 73 1021.5
20260904142509 81 207 2.0 5.0 0.00 0.00 0.00 74 1021.5
20260904142241 81 232 2.0 5.0 0.00 0.00 0.00 74 1021.5
20260904142142 81 232 2.0 6.0 0.00 0.00 0.00 75 1021.4
20260904142041 81 227 2.0 6.0 0.00 0.00 0.00 75 1021.4
20260904141940 81 212 2.0 6.0 0.00 0.00 0.00 74 1021.4
20260904141842 81 212 3.0 6.0 0.00 0.00 0.00 74 1021.4
20260904141738 81 196 3.0 6.0 0.00 0.00 0.00 74 1021.3
20260904141710 81 207 3.0 6.0 0.00 0.00 0.00 74 1021.4
20260904141704 80 224 3.0 6.0 0.00 0.00 0.00 74 1021.4
20260904141655 81 195 3.0 6.0 0.00 0.00 0.00 74 1021.4
20260904141629 81 195 3.0 6.0 0.00 0.00 0.00 74 1021.4
20260904141235 80 248 3.0 6.0 0.00 0.00 0.00 74 1021.4
20260904141130 81 235 3.0 6.0 0.00 0.00 0.00 74 1021.3
20260904141030 80 235 3.0 6.0 0.00 0.00 0.00 74 1021.4
20260904140928 80 218 3.0 6.0 0.00 0.00 0.00 74 1021.4
20260904140828 80 219 3.0 6.0 0.00 0.00 0.00 74 1021.4
20260904140726 80 227 3.0 6.0 0.00 0.00 0.00 74 1021.4
20260904140626 80 217 3.0 6.0 0.00 0.00 0.00 74 1021.4
20260904140526 80 210 3.0 5.0 0.00 0.00 0.00 74 1021.3
20260904140503 80 223 3.0 5.0 0.00 0.00 0.00 74 1021.4
20260904140453 80 219 3.0 5.0 0.00 0.00 0.00 74 1021.4
20260904140228 80 223 3.0 5.0 0.00 0.00 0.00 74 1021.4
20260904140153 80 217 4.0 5.0 0.00 0.00 0.00 73 1021.5
20260904140143 80 212 4.0 5.0 0.00 0.00 0.00 73 1021.4
20260904135920 80 266 4.0 5.0 0.00 0.00 0.00 73 1021.4
20260904135821 80 206 3.0 5.0 0.00 0.00 0.00 73 1021.4
20260904135721 80 224 3.0 5.0 0.00 0.00 0.00 73 1021.4
20260904135621 80 224 3.0 5.0 0.00 0.00 0.00 74 1021.4
20260904135514 80 213 3.0 5.0 0.00 0.00 0.00 74 1021.4
20260904135414 80 223 3.0 5.0 0.00 0.00 0.00 73 1021.4
20260904135403 80 212 3.0 5.0 0.00 0.00 0.00 73 1021.3
20260904135359 80 222 3.0 5.0 0.00 0.00 0.00 74 1021.3
20260904135345 80 224 3.0 5.0 0.00 0.00 0.00 74 1021.5
20260904135323 80 223 3.0 5.0 0.00 0.00 0.00 74 1021.4
20260904135151 80 197 3.0 5.0 0.00 0.00 0.00 74 1021.4
20260904134808 80 245 3.0 5.0 0.00 0.00 0.00 74 1021.3
20260904134710 80 219 3.0 5.0 0.00 0.00 0.00 74 1021.4
20260904134606 80 230 3.0 5.0 0.00 0.00 0.00 73 1021.3
20260904134509 80 230 3.0 5.0 0.00 0.00 0.00 73 1021.3
20260904134406 80 215 3.0 5.0 0.00 0.00 0.00 73 1021.3
20260904134307 80 221 3.0 5.0 0.00 0.00 0.00 73 1021.3
20260904134206 80 223 3.0 5.0 0.00 0.00 0.00 73 1021.3
20260904134139 80 234 3.0 5.0 0.00 0.00 0.00 73 1021.3
20260904134127 80 213 3.0 5.0 0.00 0.00 0.00 74 1021.3
20260904133902 80 226 3.0 5.0 0.00 0.00 0.00 73 1021.3
20260904133803 80 213 3.0 5.0 0.00 0.00 0.00 73 1021.3
20260904133702 80 226 3.0 5.0 0.00 0.00 0.00 73 1021.3
20260904133601 80 233 3.0 5.0 0.00 0.00 0.00 73 1021.3
20260904133532 80 199 3.0 5.0 0.00 0.00 0.00 73 1021.2
20260904133527 80 227 3.0 5.0 0.00 0.00 0.00 73 1021.2
20260904133517 80 233 3.0 5.0 0.00 0.00 0.00 73 1021.2
20260904133454 80 205 3.0 5.0 0.00 0.00 0.00 73 1021.2
20260904133054 80 213 3.0 5.0 0.00 0.00 0.00 73 1021.2
20260904132952 80 209 3.0 5.0 0.00 0.00 0.00 74 1021.2
20260904132853 80 214 3.0 5.0 0.00 0.00 0.00 74 1021.2
20260904132757 80 215 3.0 5.0 0.00 0.00 0.00 74 1021.2
20260904132743 80 223 3.0 5.0 0.00 0.00 0.00 74 1021.1
20260904132727 80 227 3.0 5.0 0.00 0.00 0.00 74 1021.2
20260904132450 80 221 2.0 5.0 0.00 0.00 0.00 73 1021.2
20260904132348 80 210 3.0 5.0 0.00 0.00 0.00 73 1021.2
20260904132241 80 206 3.0 5.0 0.00 0.00 0.00 73 1021.2
20260904132213 80 243 3.0 5.0 0.00 0.00 0.00 74 1021.2
20260904132205 80 241 3.0 5.0 0.00 0.00 0.00 74 1021.2
20260904131940 80 213 3.0 5.0 0.00 0.00 0.00 74 1021.2
20260904131844 80 212 3.0 5.0 0.00 0.00 0.00 74 1021.2
20260904131731 80 209 3.0 5.0 0.00 0.00 0.00 74 1021.2
20260904131631 80 208 3.0 5.0 0.00 0.00 0.00 74 1021.3
20260904131528 80 263 3.0 5.0 0.00 0.00 0.00 74 1021.2
20260904131428 80 267 3.0 5.0 0.00 0.00 0.00 74 1021.2
20260904131327 80 225 3.0 5.0 0.00 0.00 0.00 74 1021.2
20260904131220 80 219 3.0 5.0 0.00 0.00 0.00 74 1021.2
20260904131122 80 217 3.0 5.0 0.00 0.00 0.00 74 1021.2
20260904131021 80 231 3.0 4.0 0.00 0.00 0.00 74 1021.2
20260904130920 80 236 3.0 4.0 0.00 0.00 0.00 74 1021.2
20260904130821 80 219 3.0 4.0 0.00 0.00 0.00 74 1021.2
20260904130716 80 221 3.0 4.0 0.00 0.00 0.00 74 1021.2
20260904130613 79 223 3.0 4.0 0.00 0.00 0.00 74 1021.1
20260904130514 80 219 2.0 4.0 0.00 0.00 0.00 74 1021.2
20260904130415 80 219 2.0 5.0 0.00 0.00 0.00 74 1021.2
20260904130315 79 217 3.0 5.0 0.00 0.00 0.00 74 1021.2
20260904130240 79 227 3.0 5.0 0.00 0.00 0.00 75 1021.2
20260904130228 79 212 3.0 5.0 0.00 0.00 0.00 74 1021.2
20260904130008 79 229 3.0 5.0 0.00 0.00 0.00 74 1021.2
20260904125906 79 219 3.0 5.0 0.00 0.00 0.00 75 1021.1
20260904125835 79 229 3.0 5.0 0.00 0.00 0.00 74 1021.1
20260904125824 79 218 3.0 5.0 0.00 0.00 0.00 74 1021.1
20260904125559 79 236 3.0 5.0 0.00 0.00 0.00 74 1021.1
20260904125459 79 238 3.0 5.0 0.00 0.00 0.00 74 1021.1
20260904125358 79 240 3.0 5.0 0.00 0.00 0.00 74 1021.1
20260904125259 79 223 3.0 5.0 0.00 0.00 0.00 74 1021.1
20260904125153 79 232 3.0 5.0 0.00 0.00 0.00 75 1021.0
20260904125131 79 213 3.0 4.0 0.00 0.00 0.00 75 1021.1
20260904125119 79 215 3.0 4.0 0.00 0.00 0.00 74 1021.1
20260904124853 79 224 3.0 5.0 0.00 0.00 0.00 75 1021.1
20260904124753 79 219 3.0 5.0 0.00 0.00 0.00 75 1021.1
20260904124644 79 220 3.0 5.0 0.00 0.00 0.00 75 1021.1
20260904124617 79 212 2.0 5.0 0.00 0.00 0.00 75 1021.1
20260904124606 79 214 3.0 5.0 0.00 0.00 0.00 75 1021.1
20260904124340 79 229 2.0 5.0 0.00 0.00 0.00 75 1021.1
20260904124245 79 225 2.0 5.0 0.00 0.00 0.00 75 1021.1
20260904124138 79 211 2.0 5.0 0.00 0.00 0.00 75 1021.1
20260904124108 79 198 2.0 5.0 0.00 0.00 0.00 75 1021.1
20260904124058 79 198 2.0 5.0 0.00 0.00 0.00 75 1021.0
20260904123835 79 236 2.0 5.0 0.00 0.00 0.00 75 1021.1
20260904123802 79 190 2.0 4.0 0.00 0.00 0.00 75 1021.1
20260904123751 79 221 2.0 4.0 0.00 0.00 0.00 75 1021.1
20260904123528 78 212 2.0 4.0 0.00 0.00 0.00 75 1021.0
20260904123428 78 212 2.0 4.0 0.00 0.00 0.00 75 1021.1
20260904123333 78 209 2.0 4.0 0.00 0.00 0.00 75 1021.0
20260904123228 78 224 2.0 4.0 0.00 0.00 0.00 75 1021.0
20260904123118 78 227 1.0 4.0 0.00 0.00 0.00 75 1021.0
20260904123017 78 203 2.0 4.0 0.00 0.00 0.00 75 1021.0
20260904122918 78 228 2.0 4.0 0.00 0.00 0.00 75 1021.0
20260904122819 78 230 2.0 4.0 0.00 0.00 0.00 75 1021.0
20260904122717 78 233 2.0 4.0 0.00 0.00 0.00 75 1021.0
20260904122614 78 233 2.0 4.0 0.00 0.00 0.00 75 1021.0
20260904122543 78 220 2.0 3.0 0.00 0.00 0.00 76 1021.0
20260904122534 78 227 2.0 4.0 0.00 0.00 0.00 75 1021.0
20260904122310 78 220 2.0 3.0 0.00 0.00 0.00 75 1020.9
20260904122211 78 220 2.0 3.0 0.00 0.00 0.00 76 1020.9
20260904122105 78 220 2.0 3.0 0.00 0.00 0.00 76 1020.9
20260904122014 78 199 2.0 4.0 0.00 0.00 0.00 76 1021.0
20260904122004 78 220 2.0 4.0 0.00 0.00 0.00 76 1020.9
20260904121956 78 199 2.0 4.0 0.00 0.00 0.00 76 1021.0
20260904121942 78 220 2.0 4.0 0.00 0.00 0.00 76 1021.0
20260904121924 78 220 2.0 4.0 0.00 0.00 0.00 76 1020.9
20260904121649 78 232 2.0 4.0 0.00 0.00 0.00 76 1020.9
20260904121643 77 217 2.0 3.0 0.00 0.00 0.00 77 1020.9
20260904121638 77 217 2.0 3.0 0.00 0.00 0.00 77 1020.9
20260904121623 78 199 2.0 4.0 0.00 0.00 0.00 76 1021.0
20260904121557 78 199 2.0 4.0 0.00 0.00 0.00 76 1020.9
20260904121426 78 199 2.0 4.0 0.00 0.00 0.00 76 1020.9
20260904121247 78 211 2.0 4.0 0.00 0.00 0.00 76 1020.9
20260904121121 78 211 2.0 4.0 0.00 0.00 0.00 76 1020.9
20260904120941 78 232 2.0 4.0 0.00 0.00 0.00 76 1020.9
20260904120814 77 234 2.0 4.0 0.00 0.00 0.00 77 1020.9
20260904120647 77 207 2.0 4.0 0.00 0.00 0.00 76 1020.9
20260904120624 77 205 2.0 4.0 0.00 0.00 0.00 76 1020.9
20260904120239 77 217 2.0 3.0 0.00 0.00 0.00 77 1020.9
20260904120140 77 238 2.0 3.0 0.00 0.00 0.00 77 1020.9
20260904120036 77 238 2.0 3.0 0.00 0.00 0.00 77 1020.8
20260904115937 77 238 2.0 3.0 0.00 0.00 0.00 77 1020.9
20260904115838 77 238 1.0 3.0 0.00 0.00 0.00 76 1020.8
20260904115812 77 238 1.0 3.0 0.00 0.00 0.00 77 1020.8
20260904115801 77 238 1.0 3.0 0.00 0.00 0.00 76 1020.9
20260904115542 77 243 1.0 3.0 0.00 0.00 0.00 77 1020.9
20260904115437 77 243 1.0 3.0 0.00 0.00 0.00 76 1020.8
20260904115405 77 247 1.0 3.0 0.00 0.00 0.00 76 1020.9
20260904115354 77 245 1.0 3.0 0.00 0.00 0.00 76 1020.8
20260904115132 77 247 1.0 3.0 0.00 0.00 0.00 76 1020.8
20260904115034 77 210 1.0 2.0 0.00 0.00 0.00 76 1020.8
20260904114931 77 210 1.0 2.0 0.00 0.00 0.00 76 1020.8
20260904114834 77 210 1.0 2.0 0.00 0.00 0.00 76 1020.7
20260904114730 78 210 1.0 2.0 0.00 0.00 0.00 76 1020.7
20260904114631 78 210 1.0 2.0 0.00 0.00 0.00 76 1020.7
20260904114528 78 210 1.0 2.0 0.00 0.00 0.00 76 1020.7
20260904114428 78 210 1.0 2.0 0.00 0.00 0.00 76 1020.7
20260904114357 78 210 1.0 2.0 0.00 0.00 0.00 76 1020.6
20260904114350 78 210 1.0 2.0 0.00 0.00 0.00 76 1020.7
20260904114124 78 210 1.0 2.0 0.00 0.00 0.00 76 1020.7
20260904114022 78 210 1.0 2.0 0.00 0.00 0.00 76 1020.7
20260904113955 78 210 1.0 2.0 0.00 0.00 0.00 76 1020.7
20260904113944 78 210 1.0 2.0 0.00 0.00 0.00 76 1020.7
20260904113723 78 210 1.0 3.0 0.00 0.00 0.00 76 1020.6
20260904113654 78 210 1.0 3.0 0.00 0.00 0.00 76 1020.7
20260904113643 78 210 1.0 3.0 0.00 0.00 0.00 76 1020.7
20260904113456 78 207 1.0 3.0 0.00 0.00 0.00 75 1020.7
20260904113446 78 207 1.0 3.0 0.00 0.00 0.00 75 1020.6
20260904113223 78 207 1.0 3.0 0.00 0.00 0.00 75 1020.7
20260904113122 78 207 1.0 3.0 0.00 0.00 0.00 75 1020.6
20260904113023 78 207 1.0 3.0 0.00 0.00 0.00 75 1020.6
20260904112922 78 207 1.0 3.0 0.00 0.00 0.00 75 1020.6
20260904112854 78 204 1.0 2.0 0.00 0.00 0.00 75 1020.5
20260904112843 78 207 1.0 3.0 0.00 0.00 0.00 75 1020.5
20260904112623 78 204 1.0 2.0 0.00 0.00 0.00 75 1020.5
20260904112522 78 204 1.0 2.0 0.00 0.00 0.00 75 1020.6
20260904112423 78 204 1.0 2.0 0.00 0.00 0.00 74 1020.5
20260904112322 78 204 1.0 2.0 0.00 0.00 0.00 74 1020.5
20260904112224 78 204 1.0 2.0 0.00 0.00 0.00 74 1020.5
20260904112155 78 204 1.0 2.0 0.00 0.00 0.00 74 1020.5
20260904112144 78 204 1.0 2.0 0.00 0.00 0.00 74 1020.5
20260904111922 78 204 1.0 2.0 0.00 0.00 0.00 74 1020.5
20260904111820 79 204 1.0 2.0 0.00 0.00 0.00 74 1020.5
20260904111753 79 204 1.0 2.0 0.00 0.00 0.00 74 1020.5
20260904111741 79 204 1.0 2.0 0.00 0.00 0.00 74 1020.5
20260904111521 79 204 1.0 2.0 0.00 0.00 0.00 74 1020.4
20260904111415 79 204 1.0 2.0 0.00 0.00 0.00 74 1020.3
20260904111318 79 201 1.0 2.0 0.00 0.00 0.00 73 1020.4
20260904111216 79 201 1.0 2.0 0.00 0.00 0.00 73 1020.3
20260904111115 79 201 1.0 2.0 0.00 0.00 0.00 73 1020.3
20260904111021 79 201 1.0 2.0 0.00 0.00 0.00 73 1020.3
20260904110911 79 201 1.0 2.0 0.00 0.00 0.00 73 1020.3
20260904110807 79 201 1.0 3.0 0.00 0.00 0.00 73 1020.3
20260904110740 79 201 1.0 3.0 0.00 0.00 0.00 73 1020.3
20260904110729 79 201 1.0 3.0 0.00 0.00 0.00 73 1020.3
20260904110509 79 201 1.0 3.0 0.00 0.00 0.00 73 1020.3
20260904110404 79 201 1.0 3.0 0.00 0.00 0.00 73 1020.3
20260904110303 80 201 1.0 3.0 0.00 0.00 0.00 72 1020.3
20260904110204 80 201 1.0 3.0 0.00 0.00 0.00 72 1020.3
20260904110100 80 201 1.0 4.0 0.00 0.00 0.00 72 1020.3
20260904105959 80 201 1.0 4.0 0.00 0.00 0.00 72 1020.3
20260904105859 80 201 2.0 4.0 0.00 0.00 0.00 72 1020.2
20260904105755 80 201 2.0 4.0 0.00 0.00 0.00 72 1020.2
20260904105723 80 201 2.0 4.0 0.00 0.00 0.00 72 1020.2
20260904105714 80 201 2.0 4.0 0.00 0.00 0.00 72 1020.2
20260904105453 80 201 2.0 4.0 0.00 0.00 0.00 72 1020.2
20260904105349 80 201 2.0 4.0 0.00 0.00 0.00 72 1020.1
20260904105250 80 201 2.0 4.0 0.00 0.00 0.00 72 1020.2
20260904105150 80 201 2.0 4.0 0.00 0.00 0.00 72 1020.2
20260904105049 80 196 2.0 3.0 0.00 0.00 0.00 72 1020.2
20260904104948 80 196 2.0 3.0 0.00 0.00 0.00 72 1020.2
20260904104845 79 196 2.0 3.0 0.00 0.00 0.00 72 1020.2
20260904104745 79 196 2.0 3.0 0.00 0.00 0.00 72 1020.2
20260904104644 79 196 2.0 3.0 0.00 0.00 0.00 73 1020.2
20260904104617 79 195 2.0 3.0 0.00 0.00 0.00 73 1020.2
20260904104608 79 196 2.0 3.0 0.00 0.00 0.00 73 1020.2
20260904104412 79 188 2.0 3.0 0.00 0.00 0.00 73 1020.2
20260904104403 79 189 2.0 3.0 0.00 0.00 0.00 73 1020.2
20260904104143 79 188 2.0 3.0 0.00 0.00 0.00 73 1020.2
20260904104041 78 188 2.0 3.0 0.00 0.00 0.00 74 1020.2
20260904103941 78 188 2.0 3.0 0.00 0.00 0.00 74 1020.2
20260904103840 78 188 2.0 3.0 0.00 0.00 0.00 74 1020.2
20260904103736 78 188 2.0 3.0 0.00 0.00 0.00 74 1020.2
20260904103637 78 188 2.0 3.0 0.00 0.00 0.00 74 1020.2
20260904103536 78 188 2.0 3.0 0.00 0.00 0.00 74 1020.1
20260904103435 78 188 2.0 3.0 0.00 0.00 0.00 74 1020.2
20260904103333 78 188 2.0 3.0 0.00 0.00 0.00 74 1020.1
20260904103304 78 188 1.0 3.0 0.00 0.00 0.00 74 1020.2
20260904103254 78 188 2.0 3.0 0.00 0.00 0.00 74 1020.1
20260904103030 78 188 1.0 3.0 0.00 0.00 0.00 74 1020.2
20260904102927 78 188 1.0 3.0 0.00 0.00 0.00 74 1020.2
20260904102829 78 188 1.0 3.0 0.00 0.00 0.00 74 1020.2
20260904102729 78 188 1.0 3.0 0.00 0.00 0.00 74 1020.2
20260904102622 78 188 1.0 3.0 0.00 0.00 0.00 74 1020.2
20260904102522 78 188 1.0 3.0 0.00 0.00 0.00 74 1020.1
20260904102423 78 188 1.0 3.0 0.00 0.00 0.00 74 1020.2
20260904102354 78 188 1.0 3.0 0.00 0.00 0.00 74 1020.1
20260904102344 78 188 1.0 3.0 0.00 0.00 0.00 74 1020.2
20260904102122 78 188 1.0 3.0 0.00 0.00 0.00 74 1020.1
20260904102019 78 188 1.0 3.0 0.00 0.00 0.00 74 1020.2
20260904101948 78 188 1.0 3.0 0.00 0.00 0.00 74 1020.1
20260904101937 78 188 1.0 3.0 0.00 0.00 0.00 74 1020.1
20260904101717 78 188 1.0 3.0 0.00 0.00 0.00 74 1020.1
20260904101617 78 188 1.0 2.0 0.00 0.00 0.00 74 1020.1
20260904101516 78 188 1.0 3.0 0.00 0.00 0.00 74 1020.1
20260904101416 78 188 1.0 3.0 0.00 0.00 0.00 75 1020.1
20260904101316 78 188 1.0 3.0 0.00 0.00 0.00 75 1019.9
20260904101217 78 188 1.0 3.0 0.00 0.00 0.00 75 1019.9
20260904101116 78 184 1.0 3.0 0.00 0.00 0.00 75 1019.9
20260904101014 78 184 1.0 3.0 0.00 0.00 0.00 74 1019.9
20260904100912 78 184 1.0 3.0 0.00 0.00 0.00 75 1019.9
20260904100812 78 184 1.0 3.0 0.00 0.00 0.00 75 1019.9
20260904100710 78 184 1.0 3.0 0.00 0.00 0.00 75 1019.9
20260904100609 78 184 1.0 3.0 0.00 0.00 0.00 75 1019.9
20260904100505 78 209 1.0 3.0 0.00 0.00 0.00 75 1019.9
20260904100406 78 221 1.0 3.0 0.00 0.00 0.00 75 1019.9
20260904100304 78 227 1.0 3.0 0.00 0.00 0.00 75 1019.9
20260904100205 78 227 1.0 3.0 0.00 0.00 0.00 75 1020.1
20260904100104 78 227 1.0 3.0 0.00 0.00 0.00 75 1020.1
20260904100032 78 204 1.0 3.0 0.00 0.00 0.00 75 1019.9
20260904100022 78 204 1.0 3.0 0.00 0.00 0.00 75 1020.1
20260904095757 78 204 1.0 3.0 0.00 0.00 0.00 75 1019.9
20260904095658 78 204 1.0 3.0 0.00 0.00 0.00 75 1019.9
20260904095558 78 229 1.0 3.0 0.00 0.00 0.00 75 1019.9
20260904095458 78 229 1.0 3.0 0.00 0.00 0.00 75 1019.9
20260904095359 78 229 1.0 3.0 0.00 0.00 0.00 75 1020.1
20260904095258 78 211 0.0 3.0 0.00 0.00 0.00 75 1019.9
20260904095153 78 201 0.0 3.0 0.00 0.00 0.00 75 1020.1
20260904095056 78 200 0.0 3.0 0.00 0.00 0.00 75 1019.8
20260904094957 78 200 0.0 3.0 0.00 0.00 0.00 75 1019.8
20260904094931 78 175 0.0 0.0 0.00 0.00 0.00 74 1019.8
20260904094917 78 200 0.0 3.0 0.00 0.00 0.00 75 1019.9
20260904094650 78 216 0.0 0.0 0.00 0.00 0.00 74 1019.8
20260904094550 78 216 0.0 0.0 0.00 0.00 0.00 74 1019.9
20260904094447 78 216 0.0 0.0 0.00 0.00 0.00 74 1019.9
20260904094337 78 216 0.0 0.0 0.00 0.00 0.00 74 1019.8
20260904094237 78 216 0.0 0.0 0.00 0.00 0.00 74 1019.8
20260904094136 78 216 0.0 0.0 0.00 0.00 0.00 74 1019.8
20260904094037 78 216 0.0 0.0 0.00 0.00 0.00 74 1019.8
20260904093938 78 216 0.0 0.0 0.00 0.00 0.00 74 1019.8
20260904093832 78 216 0.0 0.0 0.00 0.00 0.00 74 1019.8
20260904093732 78 216 0.0 0.0 0.00 0.00 0.00 74 1019.8
20260904093630 78 216 0.0 0.0 0.00 0.00 0.00 74 1019.8
20260904093603 78 216 0.0 0.0 0.00 0.00 0.00 74 1019.7
20260904093552 78 216 0.0 0.0 0.00 0.00 0.00 74 1019.7
20260904093326 78 216 0.0 0.0 0.00 0.00 0.00 74 1019.8
20260904093232 78 216 0.0 0.0 0.00 0.00 0.00 74 1019.8
20260904093219 78 216 0.0 2.0 0.00 0.00 0.00 74 1019.7
20260904093201 78 216 0.0 2.0 0.00 0.00 0.00 74 1019.7
20260904092925 78 216 0.0 2.0 0.00 0.00 0.00 74 1019.8
20260904092816 78 216 0.0 2.0 0.00 0.00 0.00 74 1019.7
20260904092713 78 216 0.0 2.0 0.00 0.00 0.00 74 1019.7
20260904092644 78 216 0.0 2.0 0.00 0.00 0.00 74 1019.7
20260904092634 78 216 0.0 2.0 0.00 0.00 0.00 74 1019.7
20260904092411 78 216 1.0 2.0 0.00 0.00 0.00 74 1019.7
20260904092306 78 216 1.0 3.0 0.00 0.00 0.00 74 1019.7
20260904092207 78 216 1.0 3.0 0.00 0.00 0.00 74 1019.8
20260904092105 78 216 0.0 3.0 0.00 0.00 0.00 74 1019.7
20260904092005 78 216 0.0 3.0 0.00 0.00 0.00 74 1019.7
20260904091912 78 216 0.0 3.0 0.00 0.00 0.00 74 1019.7
20260904091807 78 216 0.0 3.0 0.00 0.00 0.00 74 1019.7
20260904091733 78 216 0.0 3.0 0.00 0.00 0.00 74 1019.6
20260904091724 78 216 0.0 3.0 0.00 0.00 0.00 74 1019.7
20260904091500 78 216 1.0 3.0 0.00 0.00 0.00 74 1019.7
20260904091357 78 216 0.0 3.0 0.00 0.00 0.00 74 1019.7
20260904091258 78 219 1.0 2.0 0.00 0.00 0.00 74 1019.6
20260904091156 78 219 1.0 2.0 0.00 0.00 0.00 74 1019.6
20260904091054 78 219 1.0 4.0 0.00 0.00 0.00 74 1019.6
20260904090953 78 219 1.0 4.0 0.00 0.00 0.00 74 1019.7
20260904090849 78 219 1.0 4.0 0.00 0.00 0.00 74 1019.6
20260904090751 78 219 1.0 4.0 0.00 0.00 0.00 74 1019.6
20260904090732 78 219 1.0 4.0 0.00 0.00 0.00 74 1019.6
20260904090720 78 219 1.0 4.0 0.00 0.00 0.00 74 1019.6
20260904090446 78 219 1.0 4.0 0.00 0.00 0.00 74 1019.6
20260904090347 78 219 1.0 4.0 0.00 0.00 0.00 74 1019.5
20260904090246 78 219 1.0 4.0 0.00 0.00 0.00 74 1019.6
20260904090147 78 229 0.0 4.0 0.00 0.00 0.00 74 1019.6
20260904090046 78 221 0.0 4.0 0.00 0.00 0.00 74 1019.5
20260904085947 78 198 0.0 2.0 0.00 0.00 0.00 74 1019.6
20260904085921 78 199 0.0 1.0 0.00 0.00 0.00 74 1019.6
20260904085910 78 199 0.0 1.0 0.00 0.00 0.00 74 1019.6
20260904085644 78 199 0.0 1.0 0.00 0.00 0.00 74 1019.6
20260904085543 78 199 0.0 1.0 0.00 0.00 0.00 73 1019.6
20260904085516 78 199 0.0 1.0 0.00 0.00 0.00 73 1019.6
20260904085506 78 199 0.0 1.0 0.00 0.00 0.00 73 1019.6
20260904085315 78 199 0.0 1.0 0.00 0.00 0.00 73 1019.5
20260904085306 78 199 0.0 1.0 0.00 0.00 0.00 73 1019.6
20260904085041 78 199 0.0 2.0 0.00 0.00 0.00 74 1019.5
20260904084955 78 199 0.0 2.0 0.00 0.00 0.00 73 1019.5
20260904084951 78 199 0.0 2.0 0.00 0.00 0.00 73 1019.6
20260904084941 78 199 0.0 2.0 0.00 0.00 0.00 73 1019.5
20260904084920 78 199 0.0 2.0 0.00 0.00 0.00 73 1019.5
20260904084541 78 199 0.0 2.0 0.00 0.00 0.00 73 1019.6
20260904084442 78 199 0.0 2.0 0.00 0.00 0.00 74 1019.5
20260904084342 78 199 0.0 2.0 0.00 0.00 0.00 74 1019.6
20260904084305 78 200 0.0 2.0 0.00 0.00 0.00 74 1019.6
20260904084300 78 200 0.0 3.0 0.00 0.00 0.00 74 1019.6
20260904084246 78 199 0.0 2.0 0.00 0.00 0.00 74 1019.5
20260904084223 78 199 0.0 2.0 0.00 0.00 0.00 74 1019.6
20260904083845 78 200 0.0 3.0 0.00 0.00 0.00 74 1019.5
20260904083741 78 200 0.0 3.0 0.00 0.00 0.00 74 1019.6
20260904083643 78 200 0.0 3.0 0.00 0.00 0.00 74 1019.6
20260904083616 78 200 0.0 3.0 0.00 0.00 0.00 74 1019.6
20260904083604 78 200 0.0 3.0 0.00 0.00 0.00 74 1019.6
20260904083341 78 200 0.0 3.0 0.00 0.00 0.00 74 1019.5
20260904083242 78 199 0.0 3.0 0.00 0.00 0.00 74 1019.6
20260904083142 78 200 0.0 3.0 0.00 0.00 0.00 74 1019.6
20260904083042 78 200 0.0 3.0 0.00 0.00 0.00 74 1019.5
20260904082938 78 194 0.0 2.0 0.00 0.00 0.00 74 1019.6
20260904082838 78 194 0.0 2.0 0.00 0.00 0.00 74 1019.6
20260904082738 78 194 0.0 2.0 0.00 0.00 0.00 74 1019.6
20260904082637 78 194 0.0 2.0 0.00 0.00 0.00 74 1019.7
20260904082538 78 194 0.0 2.0 0.00 0.00 0.00 74 1019.6
20260904082437 78 194 0.0 2.0 0.00 0.00 0.00 74 1019.5
20260904082339 78 194 0.0 2.0 0.00 0.00 0.00 74 1019.6
20260904082236 78 194 0.0 2.0 0.00 0.00 0.00 74 1019.6
20260904082138 78 194 0.0 2.0 0.00 0.00 0.00 74 1019.6
20260904082035 79 194 0.0 2.0 0.00 0.00 0.00 74 1019.7
20260904081934 79 194 0.0 2.0 0.00 0.00 0.00 73 1019.6
20260904081833 79 194 1.0 2.0 0.00 0.00 0.00 73 1019.6
20260904081756 79 194 1.0 2.0 0.00 0.00 0.00 73 1019.6
20260904081750 79 194 1.0 2.0 0.00 0.00 0.00 73 1019.6
20260904081738 79 194 1.0 2.0 0.00 0.00 0.00 73 1019.6
20260904081716 79 194 1.0 2.0 0.00 0.00 0.00 73 1019.6
20260904081335 79 207 1.0 2.0 0.00 0.00 0.00 73 1019.6
20260904081234 79 207 1.0 2.0 0.00 0.00 0.00 73 1019.6
20260904081134 79 207 1.0 2.0 0.00 0.00 0.00 73 1019.6
20260904081034 79 207 1.0 2.0 0.00 0.00 0.00 73 1019.6
20260904080934 79 207 1.0 2.0 0.00 0.00 0.00 73 1019.6
20260904080911 79 233 1.0 3.0 0.00 0.00 0.00 72 1019.6
20260904080900 79 233 1.0 3.0 0.00 0.00 0.00 72 1019.6
20260904080634 79 233 1.0 3.0 0.00 0.00 0.00 72 1019.6
20260904080606 79 233 2.0 3.0 0.00 0.00 0.00 72 1019.6
20260904080557 79 233 1.0 3.0 0.00 0.00 0.00 72 1019.6
20260904080405 80 233 2.0 3.0 0.00 0.00 0.00 72 1019.6
20260904080356 80 233 2.0 3.0 0.00 0.00 0.00 72 1019.6
20260904080133 80 233 2.0 3.0 0.00 0.00 0.00 72 1019.6
20260904080038 80 233 2.0 3.0 0.00 0.00 0.00 72 1019.6
20260904075933 80 233 2.0 3.0 0.00 0.00 0.00 72 1019.6
20260904075842 80 233 2.0 3.0 0.00 0.00 0.00 72 1019.6
20260904075736 80 205 2.0 3.0 0.00 0.00 0.00 71 1019.7
20260904075722 80 205 2.0 3.0 0.00 0.00 0.00 71 1019.6
20260904075701 80 205 2.0 3.0 0.00 0.00 0.00 71 1019.7
20260904075526 80 207 2.0 3.0 0.00 0.00 0.00 71 1019.7
20260904075512 80 207 2.0 3.0 0.00 0.00 0.00 71 1019.6
20260904075238 80 207 2.0 3.0 0.00 0.00 0.00 71 1019.6
20260904075135 80 207 1.0 3.0 0.00 0.00 0.00 71 1019.6
20260904075040 80 207 1.0 3.0 0.00 0.00 0.00 71 1019.7
20260904074937 80 207 1.0 3.0 0.00 0.00 0.00 71 1019.6
20260904074837 79 207 1.0 3.0 0.00 0.00 0.00 71 1019.6
20260904074734 79 207 1.0 2.0 0.00 0.00 0.00 71 1019.7
20260904074633 79 205 1.0 2.0 0.00 0.00 0.00 71 1019.7
20260904074624 79 205 1.0 2.0 0.00 0.00 0.00 71 1019.7
20260904074609 79 205 1.0 2.0 0.00 0.00 0.00 71 1019.6
20260904074341 79 205 1.0 2.0 0.00 0.00 0.00 71 1019.6
20260904074227 80 205 1.0 2.0 0.00 0.00 0.00 71 1019.7
20260904074127 80 205 1.0 2.0 0.00 0.00 0.00 71 1019.7
20260904074025 80 205 1.0 2.0 0.00 0.00 0.00 71 1019.7
20260904073926 80 205 1.0 2.0 0.00 0.00 0.00 71 1019.7
20260904073824 80 205 1.0 3.0 0.00 0.00 0.00 71 1019.7
20260904073722 80 205 1.0 3.0 0.00 0.00 0.00 71 1019.7
20260904073641 80 205 1.0 3.0 0.00 0.00 0.00 71 1019.8
20260904073625 80 205 1.0 3.0 0.00 0.00 0.00 71 1019.6
20260904073601 80 205 1.0 3.0 0.00 0.00 0.00 71 1019.7
20260904073423 80 205 1.0 3.0 0.00 0.00 0.00 71 1019.7
20260904073417 80 189 1.0 3.0 0.00 0.00 0.00 71 1019.8
20260904073411 80 188 1.0 3.0 0.00 0.00 0.00 71 1019.8
20260904073320 80 205 1.0 3.0 0.00 0.00 0.00 71 1019.8
20260904073256 80 205 1.0 3.0 0.00 0.00 0.00 71 1019.8
20260904073238 80 205 1.0 3.0 0.00 0.00 0.00 71 1019.8
20260904073150 80 205 1.0 3.0 0.00 0.00 0.00 71 1019.8
20260904072830 80 189 1.0 3.0 0.00 0.00 0.00 71 1019.8
20260904072515 80 178 1.0 3.0 0.00 0.00 0.00 71 1019.8
20260904072413 80 206 1.0 6.0 0.00 0.00 0.00 71 1019.8
20260904072311 80 202 1.0 6.0 0.00 0.00 0.00 71 1019.8
20260904072212 80 202 1.0 6.0 0.00 0.00 0.00 71 1019.8
20260904072109 80 202 1.0 6.0 0.00 0.00 0.00 71 1019.8
20260904072008 80 184 1.0 6.0 0.00 0.00 0.00 71 1019.8
20260904071922 80 202 1.0 6.0 0.00 0.00 0.00 70 1019.8
20260904071911 80 185 1.0 6.0 0.00 0.00 0.00 71 1019.8
20260904071904 80 223 1.0 6.0 0.00 0.00 0.00 71 1019.8
20260904071844 80 202 1.0 6.0 0.00 0.00 0.00 70 1019.8
20260904071507 80 223 1.0 6.0 0.00 0.00 0.00 71 1019.8
20260904071405 80 192 1.0 4.0 0.00 0.00 0.00 71 1019.9
20260904071336 80 192 1.0 5.0 0.00 0.00 0.00 71 1019.9
20260904071324 80 192 1.0 4.0 0.00 0.00 0.00 71 1019.8
20260904071104 80 190 1.0 5.0 0.00 0.00 0.00 71 1019.9
20260904071003 80 197 1.0 5.0 0.00 0.00 0.00 71 1019.9
20260904070904 80 196 1.0 5.0 0.00 0.00 0.00 71 1019.9
20260904070804 80 194 1.0 5.0 0.00 0.00 0.00 71 1019.9
20260904070704 80 193 1.0 5.0 0.00 0.00 0.00 71 1019.9
20260904070604 80 193 1.0 5.0 0.00 0.00 0.00 71 1019.8
20260904070503 80 193 1.0 5.0 0.00 0.00 0.00 71 1019.9
20260904070401 80 193 1.0 5.0 0.00 0.00 0.00 70 1019.9
20260904070334 80 213 1.0 5.0 0.00 0.00 0.00 71 1019.9
20260904070328 80 215 1.0 5.0 0.00 0.00 0.00 71 1019.8
20260904070319 80 173 1.0 5.0 0.00 0.00 0.00 71 1019.9
20260904070255 80 217 1.0 4.0 0.00 0.00 0.00 71 1019.9
20260904070140 80 217 1.0 5.0 0.00 0.00 0.00 71 1019.9
20260904070127 80 217 1.0 5.0 0.00 0.00 0.00 71 1019.9
20260904065935 80 209 1.0 5.0 0.00 0.00 0.00 71 1019.9
20260904065611 80 184 1.0 5.0 0.00 0.00 0.00 71 1019.9
20260904065557 80 155 1.0 5.0 0.00 0.00 0.00 71 1019.9
20260904065535 80 177 1.0 5.0 0.00 0.00 0.00 71 1019.9
20260904065412 80 184 1.0 5.0 0.00 0.00 0.00 71 1019.9
20260904065148 80 163 1.0 5.0 0.00 0.00 0.00 72 1019.9
20260904065049 80 200 1.0 5.0 0.00 0.00 0.00 72 1019.9
20260904064949 80 233 1.0 4.0 0.00 0.00 0.00 72 1019.9
20260904064849 80 235 1.0 4.0 0.00 0.00 0.00 72 1019.9
20260904064747 80 183 1.0 4.0 0.00 0.00 0.00 72 1019.9
20260904064649 80 183 1.0 4.0 0.00 0.00 0.00 72 1019.9
20260904064545 80 181 1.0 4.0 0.00 0.00 0.00 72 1019.9
20260904064446 80 178 1.0 4.0 0.00 0.00 0.00 72 1019.9
20260904064343 80 182 1.0 4.0 0.00 0.00 0.00 72 1019.9
20260904064316 80 181 1.0 4.0 0.00 0.00 0.00 72 1019.9
20260904064304 80 182 1.0 4.0 0.00 0.00 0.00 72 1019.9
20260904064044 80 230 1.0 3.0 0.00 0.00 0.00 72 1019.9
20260904063939 80 196 1.0 3.0 0.00 0.00 0.00 72 1019.9
20260904063840 80 196 1.0 3.0 0.00 0.00 0.00 72 1020.1
20260904063739 80 196 1.0 3.0 0.00 0.00 0.00 72 1020.1
20260904063641 80 195 1.0 3.0 0.00 0.00 0.00 72 1019.9
20260904063539 80 195 1.0 3.0 0.00 0.00 0.00 72 1020.1
20260904063437 80 195 1.0 3.0 0.00 0.00 0.00 72 1020.1
20260904063337 80 195 1.0 4.0 0.00 0.00 0.00 72 1020.1
20260904063308 80 205 1.0 4.0 0.00 0.00 0.00 72 1020.1
20260904063258 80 205 1.0 4.0 0.00 0.00 0.00 72 1020.1
20260904063037 80 130 1.0 4.0 0.00 0.00 0.00 72 1020.1
20260904062935 80 130 1.0 4.0 0.00 0.00 0.00 72 1020.1
20260904062837 80 130 1.0 4.0 0.00 0.00 0.00 72 1020.2
20260904062733 80 123 1.0 4.0 0.00 0.00 0.00 72 1020.2
20260904062703 80 215 1.0 4.0 0.00 0.00 0.00 72 1020.2
20260904062652 80 215 1.0 4.0 0.00 0.00 0.00 72 1020.1
20260904062426 80 215 1.0 4.0 0.00 0.00 0.00 72 1020.2
20260904062325 80 225 1.0 3.0 0.00 0.00 0.00 72 1020.2
20260904062226 80 223 1.0 3.0 0.00 0.00 0.00 72 1020.2
20260904062201 80 208 1.0 3.0 0.00 0.00 0.00 72 1020.2
20260904062156 80 208 1.0 3.0 0.00 0.00 0.00 72 1020.2
20260904062144 80 128 1.0 3.0 0.00 0.00 0.00 72 1020.2
20260904062123 80 208 1.0 3.0 0.00 0.00 0.00 72 1020.2
20260904061957 80 208 1.0 3.0 0.00 0.00 0.00 72 1020.2
20260904061620 80 208 1.0 3.0 0.00 0.00 0.00 72 1020.2
20260904061517 80 207 1.0 2.0 0.00 0.00 0.00 72 1020.2
20260904061417 80 207 1.0 2.0 0.00 0.00 0.00 72 1020.2
20260904061315 80 207 1.0 2.0 0.00 0.00 0.00 72 1020.2
20260904061216 80 207 1.0 3.0 0.00 0.00 0.00 72 1020.2
20260904061114 80 203 1.0 3.0 0.00 0.00 0.00 72 1020.2
20260904061007 80 203 1.0 3.0 0.00 0.00 0.00 72 1020.2
20260904060905 80 221 1.0 3.0 0.00 0.00 0.00 72 1020.2
20260904060839 80 224 0.0 3.0 0.00 0.00 0.00 72 1020.3
20260904060827 80 231 0.0 3.0 0.00 0.00 0.00 72 1020.2
20260904060603 80 161 1.0 3.0 0.00 0.00 0.00 72 1020.2
20260904060503 80 161 1.0 5.0 0.00 0.00 0.00 73 1020.3
20260904060401 80 140 1.0 5.0 0.00 0.00 0.00 73 1020.3
20260904060301 80 140 1.0 5.0 0.00 0.00 0.00 72 1020.3
20260904060237 80 255 0.0 5.0 0.00 0.00 0.00 72 1020.3
20260904060232 80 161 1.0 5.0 0.00 0.00 0.00 72 1020.3
20260904060226 80 161 1.0 5.0 0.00 0.00 0.00 72 1020.3
20260904060212 80 205 0.0 5.0 0.00 0.00 0.00 72 1020.3
20260904060154 80 259 0.0 5.0 0.00 0.00 0.00 72 1020.3
20260904055655 80 161 1.0 5.0 0.00 0.00 0.00 73 1020.4
20260904055554 80 161 1.0 5.0 0.00 0.00 0.00 73 1020.4
20260904055545 80 252 0.0 3.0 0.00 0.00 0.00 72 1020.4
20260904055541 80 252 0.0 3.0 0.00 0.00 0.00 72 1020.4
20260904055518 80 252 0.0 3.0 0.00 0.00 0.00 72 1020.4
20260904055141 80 200 1.0 3.0 0.00 0.00 0.00 73 1020.4
20260904055052 80 235 1.0 3.0 0.00 0.00 0.00 73 1020.4
20260904055042 80 200 1.0 3.0 0.00 0.00 0.00 73 1020.4
20260904055034 80 235 1.0 5.0 0.00 0.00 0.00 73 1020.4
20260904055016 80 205 1.0 3.0 0.00 0.00 0.00 73 1020.5
20260904054633 80 235 1.0 5.0 0.00 0.00 0.00 73 1020.4
20260904054537 80 196 1.0 5.0 0.00 0.00 0.00 73 1020.4
20260904054425 80 196 1.0 5.0 0.00 0.00 0.00 73 1020.4
20260904054358 80 196 1.0 5.0 0.00 0.00 0.00 73 1020.4
20260904054348 80 196 1.0 5.0 0.00 0.00 0.00 73 1020.5
20260904054125 80 211 1.0 5.0 0.00 0.00 0.00 73 1020.4
20260904054026 80 211 1.0 5.0 0.00 0.00 0.00 73 1020.4
20260904053915 80 105 1.0 5.0 0.00 0.00 0.00 73 1020.4
20260904053814 80 177 1.0 5.0 0.00 0.00 0.00 73 1020.4
20260904053716 80 227 1.0 3.0 0.00 0.00 0.00 73 1020.4
20260904053615 80 227 1.0 3.0 0.00 0.00 0.00 73 1020.4
20260904053515 80 227 1.0 3.0 0.00 0.00 0.00 73 1020.5
20260904053414 80 227 1.0 4.0 0.00 0.00 0.00 73 1020.4
20260904053314 80 232 1.0 4.0 0.00 0.00 0.00 73 1020.5
20260904053212 80 232 1.0 4.0 0.00 0.00 0.00 73 1020.5
20260904053112 80 232 1.0 4.0 0.00 0.00 0.00 73 1020.5
20260904053010 80 232 1.0 4.0 0.00 0.00 0.00 73 1020.5
20260904052905 80 232 1.0 4.0 0.00 0.00 0.00 73 1020.5
20260904052805 80 232 1.0 4.0 0.00 0.00 0.00 73 1020.5
20260904052705 80 190 1.0 4.0 0.00 0.00 0.00 73 1020.5
20260904052610 80 196 1.0 4.0 0.00 0.00 0.00 73 1020.5
20260904052504 80 196 1.0 4.0 0.00 0.00 0.00 73 1020.5
20260904052353 80 183 1.0 3.0 0.00 0.00 0.00 73 1020.5
20260904052255 80 190 1.0 3.0 0.00 0.00 0.00 73 1020.6
20260904052153 80 190 1.0 3.0 0.00 0.00 0.00 73 1020.6
20260904052051 80 190 1.0 3.0 0.00 0.00 0.00 73 1020.6
20260904051951 80 219 1.0 3.0 0.00 0.00 0.00 73 1020.6
20260904051919 80 219 1.0 3.0 0.00 0.00 0.00 73 1020.5
20260904051909 80 220 1.0 3.0 0.00 0.00 0.00 73 1020.5
20260904051647 80 219 1.0 3.0 0.00 0.00 0.00 73 1020.6
20260904051555 80 131 1.0 3.0 0.00 0.00 0.00 73 1020.5
20260904051444 80 131 1.0 3.0 0.00 0.00 0.00 72 1020.6
20260904051339 80 203 1.0 3.0 0.00 0.00 0.00 73 1020.5
20260904051240 80 214 1.0 3.0 0.00 0.00 0.00 72 1020.6
20260904051139 80 215 1.0 3.0 0.00 0.00 0.00 72 1020.6
20260904051116 80 215 1.0 3.0 0.00 0.00 0.00 72 1020.5
20260904051107 80 215 1.0 3.0 0.00 0.00 0.00 72 1020.6
20260904050905 80 187 1.0 3.0 0.00 0.00 0.00 72 1020.6
20260904050853 80 194 1.0 3.0 0.00 0.00 0.00 72 1020.5
20260904050629 80 215 1.0 3.0 0.00 0.00 0.00 72 1020.6
20260904050605 80 215 1.0 4.0 0.00 0.00 0.00 72 1020.6
20260904050556 80 215 1.0 3.0 0.00 0.00 0.00 72 1020.6
20260904050325 80 215 1.0 4.0 0.00 0.00 0.00 72 1020.7
20260904050223 80 215 1.0 4.0 0.00 0.00 0.00 72 1020.6
20260904050158 80 238 1.0 4.0 0.00 0.00 0.00 72 1020.6
20260904050147 80 238 1.0 4.0 0.00 0.00 0.00 72 1020.7
20260904045955 80 238 1.0 4.0 0.00 0.00 0.00 72 1020.6
20260904045944 80 238 1.0 4.0 0.00 0.00 0.00 72 1020.7
20260904045716 80 171 1.0 6.0 0.00 0.00 0.00 72 1020.7
20260904045618 80 169 1.0 6.0 0.00 0.00 0.00 72 1020.6
20260904045517 80 169 1.0 6.0 0.00 0.00 0.00 72 1020.7
20260904045417 80 167 1.0 6.0 0.00 0.00 0.00 72 1020.7
20260904045307 80 167 1.0 6.0 0.00 0.00 0.00 72 1020.6
20260904045206 81 164 1.0 6.0 0.00 0.00 0.00 72 1020.7
20260904045106 81 164 1.0 6.0 0.00 0.00 0.00 72 1020.7
20260904045034 81 164 1.0 6.0 0.00 0.00 0.00 72 1020.7
20260904045025 81 164 1.0 6.0 0.00 0.00 0.00 72 1020.6
20260904044804 81 194 1.0 5.0 0.00 0.00 0.00 71 1020.6
20260904044700 81 231 1.0 5.0 0.00 0.00 0.00 71 1020.7
20260904044601 81 163 1.0 5.0 0.00 0.00 0.00 71 1020.7
20260904044500 81 163 1.0 5.0 0.00 0.00 0.00 71 1020.6
20260904044357 81 163 1.0 5.0 0.00 0.00 0.00 71 1020.7
20260904044253 81 163 1.0 5.0 0.00 0.00 0.00 71 1020.7
20260904044222 81 212 1.0 5.0 0.00 0.00 0.00 71 1020.7
20260904044211 81 189 1.0 5.0 0.00 0.00 0.00 71 1020.6
20260904043951 81 212 1.0 5.0 0.00 0.00 0.00 70 1020.6
20260904043852 81 212 2.0 5.0 0.00 0.00 0.00 70 1020.7
20260904043738 81 212 1.0 5.0 0.00 0.00 0.00 70 1020.7
20260904043638 81 212 1.0 5.0 0.00 0.00 0.00 70 1020.7
20260904043538 82 212 1.0 5.0 0.00 0.00 0.00 70 1020.6
20260904043440 82 212 1.0 5.0 0.00 0.00 0.00 70 1020.6
20260904043338 82 193 1.0 5.0 0.00 0.00 0.00 70 1020.6
20260904043234 82 186 1.0 4.0 0.00 0.00 0.00 69 1020.6
20260904043133 82 190 1.0 5.0 0.00 0.00 0.00 69 1020.7
20260904043033 82 184 1.0 5.0 0.00 0.00 0.00 69 1020.6
20260904042956 82 205 2.0 5.0 0.00 0.00 0.00 68 1020.7
20260904042942 82 107 1.0 5.0 0.00 0.00 0.00 68 1020.7
20260904042933 82 199 1.0 5.0 0.00 0.00 0.00 69 1020.7
20260904042907 82 207 1.0 5.0 0.00 0.00 0.00 69 1020.7
20260904042600 82 224 2.0 6.0 0.00 0.00 0.00 68 1020.7
20260904042549 82 184 2.0 6.0 0.00 0.00 0.00 68 1020.7
20260904042325 82 235 2.0 6.0 0.00 0.00 0.00 68 1020.8
20260904042209 82 196 1.0 6.0 0.00 0.00 0.00 68 1020.7
20260904042110 82 194 1.0 6.0 0.00 0.00 0.00 68 1020.7
20260904042043 82 203 1.0 6.0 0.00 0.00 0.00 68 1020.7
20260904042032 82 180 1.0 6.0 0.00 0.00 0.00 68 1020.7
20260904041811 82 188 1.0 6.0 0.00 0.00 0.00 68 1020.7
20260904041713 82 196 1.0 6.0 0.00 0.00 0.00 68 1020.7
20260904041646 82 146 1.0 5.0 0.00 0.00 0.00 68 1020.8
20260904041634 82 204 1.0 5.0 0.00 0.00 0.00 68 1020.7
20260904041438 82 217 2.0 5.0 0.00 0.00 0.00 68 1020.8
20260904041428 82 146 1.0 5.0 0.00 0.00 0.00 68 1020.7
20260904041200 82 204 2.0 5.0 0.00 0.00 0.00 68 1020.7
20260904041102 82 204 2.0 5.0 0.00 0.00 0.00 68 1020.8
20260904041000 82 203 2.0 5.0 0.00 0.00 0.00 68 1020.8
20260904040859 82 176 2.0 6.0 0.00 0.00 0.00 68 1020.8
20260904040759 82 195 2.0 6.0 0.00 0.00 0.00 68 1020.8
20260904040654 82 195 2.0 6.0 0.00 0.00 0.00 68 1020.9
20260904040554 82 191 2.0 6.0 0.00 0.00 0.00 69 1020.8
20260904040454 82 224 2.0 6.0 0.00 0.00 0.00 69 1020.8
20260904040353 82 168 2.0 6.0 0.00 0.00 0.00 69 1020.9
20260904040253 82 167 2.0 6.0 0.00 0.00 0.00 69 1020.8
20260904040157 81 146 2.0 6.0 0.00 0.00 0.00 69 1020.9
20260904040050 81 150 2.0 6.0 0.00 0.00 0.00 69 1020.9
20260904035950 81 148 2.0 6.0 0.00 0.00 0.00 69 1020.9
20260904035905 81 210 2.0 4.0 0.00 0.00 0.00 69 1020.9
20260904035751 81 184 2.0 4.0 0.00 0.00 0.00 69 1020.9
20260904035658 81 227 2.0 4.0 0.00 0.00 0.00 69 1020.9
20260904035548 81 155 1.0 4.0 0.00 0.00 0.00 69 1020.9
20260904035449 81 165 1.0 4.0 0.00 0.00 0.00 69 1021.0
20260904035348 81 165 1.0 4.0 0.00 0.00 0.00 69 1021.0
20260904035248 81 158 1.0 4.0 0.00 0.00 0.00 70 1021.0
20260904035150 81 207 1.0 4.0 0.00 0.00 0.00 70 1021.0
20260904035056 81 156 1.0 4.0 0.00 0.00 0.00 70 1020.9
20260904034946 81 178 1.0 5.0 0.00 0.00 0.00 70 1021.0
20260904034847 81 126 1.0 5.0 0.00 0.00 0.00 69 1021.1
20260904034747 81 126 1.0 5.0 0.00 0.00 0.00 69 1021.0
20260904034646 81 200 1.0 5.0 0.00 0.00 0.00 69 1021.1
20260904034546 81 200 1.0 5.0 0.00 0.00 0.00 69 1021.1
20260904034447 81 203 1.0 5.0 0.00 0.00 0.00 69 1021.1
20260904034341 81 202 1.0 5.0 0.00 0.00 0.00 69 1021.1
20260904034241 81 208 1.0 5.0 0.00 0.00 0.00 69 1021.1
20260904034203 81 157 1.0 3.0 0.00 0.00 0.00 69 1021.1
20260904034159 81 135 1.0 3.0 0.00 0.00 0.00 69 1021.0
20260904034146 81 159 1.0 5.0 0.00 0.00 0.00 69 1021.0
20260904034122 81 161 1.0 5.0 0.00 0.00 0.00 69 1021.0
20260904033748 81 188 1.0 3.0 0.00 0.00 0.00 69 1021.1
20260904033636 81 188 1.0 3.0 0.00 0.00 0.00 68 1021.1
20260904033534 81 199 1.0 4.0 0.00 0.00 0.00 68 1021.1
20260904033435 81 215 1.0 4.0 0.00 0.00 0.00 68 1021.0
20260904033336 81 221 1.0 4.0 0.00 0.00 0.00 68 1021.0
20260904033235 81 225 1.0 4.0 0.00 0.00 0.00 68 1021.1
20260904033136 81 173 1.0 4.0 0.00 0.00 0.00 68 1021.1
20260904033035 81 88 1.0 4.0 0.00 0.00 0.00 68 1021.1
20260904032934 81 113 1.0 4.0 0.00 0.00 0.00 68 1021.1
20260904032836 81 101 1.0 4.0 0.00 0.00 0.00 69 1021.2
20260904032734 81 101 1.0 4.0 0.00 0.00 0.00 68 1021.1
20260904032636 81 183 1.0 4.0 0.00 0.00 0.00 68 1021.1
20260904032534 81 182 1.0 3.0 0.00 0.00 0.00 68 1021.1
20260904032509 81 113 0.0 3.0 0.00 0.00 0.00 68 1021.1
20260904032457 81 192 1.0 3.0 0.00 0.00 0.00 68 1021.2
20260904032317 82 177 0.0 3.0 0.00 0.00 0.00 68 1021.2
20260904032306 81 186 0.0 3.0 0.00 0.00 0.00 68 1021.1
20260904032030 82 176 1.0 3.0 0.00 0.00 0.00 67 1021.1
20260904031932 82 155 1.0 3.0 0.00 0.00 0.00 67 1021.1
20260904031906 82 152 1.0 3.0 0.00 0.00 0.00 67 1021.1
20260904031856 82 155 1.0 3.0 0.00 0.00 0.00 67 1021.1
20260904031629 82 152 1.0 6.0 0.00 0.00 0.00 67 1021.2
20260904031524 82 153 1.0 6.0 0.00 0.00 0.00 67 1021.1
20260904031422 82 96 1.0 6.0 0.00 0.00 0.00 67 1021.1
20260904031333 82 96 1.0 6.0 0.00 0.00 0.00 67 1021.1
20260904031224 82 96 1.0 6.0 0.00 0.00 0.00 67 1021.2
20260904031155 82 96 1.0 6.0 0.00 0.00 0.00 66 1021.2
20260904031145 82 96 1.0 6.0 0.00 0.00 0.00 66 1021.2
20260904030922 82 96 1.0 6.0 0.00 0.00 0.00 66 1021.3
20260904030821 82 135 1.0 6.0 0.00 0.00 0.00 66 1021.2
20260904030756 82 99 1.0 6.0 0.00 0.00 0.00 66 1021.3
20260904030747 82 136 1.0 6.0 0.00 0.00 0.00 66 1021.2
20260904030553 82 133 1.0 4.0 0.00 0.00 0.00 66 1021.3
20260904030543 82 119 1.0 4.0 0.00 0.00 0.00 66 1021.2
20260904030347 82 97 1.0 4.0 0.00 0.00 0.00 66 1021.2
20260904030340 82 159 1.0 4.0 0.00 0.00 0.00 66 1021.2
20260904030326 82 132 1.0 4.0 0.00 0.00 0.00 66 1021.2
20260904030303 82 90 1.0 4.0 0.00 0.00 0.00 66 1021.2
20260904025919 82 192 1.0 4.0 0.00 0.00 0.00 66 1021.2
20260904025822 82 186 1.0 4.0 0.00 0.00 0.00 66 1021.2
20260904025720 82 119 1.0 4.0 0.00 0.00 0.00 66 1021.2
20260904025653 82 176 1.0 4.0 0.00 0.00 0.00 66 1021.3
20260904025642 82 149 1.0 4.0 0.00 0.00 0.00 66 1021.2
20260904025451 82 99 1.0 3.0 0.00 0.00 0.00 66 1021.3
20260904025439 82 107 1.0 3.0 0.00 0.00 0.00 66 1021.3
20260904025306 82 129 0.0 2.0 0.00 0.00 0.00 65 1021.3
20260904025250 82 128 0.0 3.0 0.00 0.00 0.00 66 1021.2
20260904025019 82 129 0.0 2.0 0.00 0.00 0.00 66 1021.3
20260904024919 82 129 0.0 2.0 0.00 0.00 0.00 66 1021.3
20260904024821 82 129 0.0 2.0 0.00 0.00 0.00 65 1021.2
20260904024721 82 129 0.0 2.0 0.00 0.00 0.00 65 1021.2
20260904024621 82 129 0.0 2.0 0.00 0.00 0.00 65 1021.2
20260904024520 82 129 0.0 2.0 0.00 0.00 0.00 65 1021.3
20260904024455 82 128 0.0 2.0 0.00 0.00 0.00 65 1021.3
20260904024444 82 128 0.0 2.0 0.00 0.00 0.00 65 1021.3
20260904024249 82 128 0.0 2.0 0.00 0.00 0.00 65 1021.3
20260904024238 82 128 0.0 2.0 0.00 0.00 0.00 65 1021.3
20260904024016 82 127 0.0 1.0 0.00 0.00 0.00 65 1021.3
20260904023913 82 127 0.0 1.0 0.00 0.00 0.00 65 1021.3
20260904023813 82 127 0.0 1.0 0.00 0.00 0.00 65 1021.3
20260904023711 82 127 0.0 1.0 0.00 0.00 0.00 65 1021.3
20260904023641 82 127 0.0 1.0 0.00 0.00 0.00 65 1021.2
20260904023631 82 127 0.0 1.0 0.00 0.00 0.00 65 1021.3
20260904023404 82 127 0.0 2.0 0.00 0.00 0.00 65 1021.2
20260904023305 82 126 0.0 3.0 0.00 0.00 0.00 65 1021.2
20260904023203 82 126 0.0 3.0 0.00 0.00 0.00 65 1021.2
20260904023104 82 126 0.0 3.0 0.00 0.00 0.00 65 1021.1
20260904023005 82 221 0.0 3.0 0.00 0.00 0.00 65 1021.1
20260904022904 82 221 0.0 3.0 0.00 0.00 0.00 65 1021.2
20260904022803 82 190 0.0 3.0 0.00 0.00 0.00 65 1021.2
20260904022703 82 190 0.0 3.0 0.00 0.00 0.00 65 1021.2
20260904022601 82 191 0.0 3.0 0.00 0.00 0.00 65 1021.1
20260904022459 82 191 0.0 3.0 0.00 0.00 0.00 65 1021.2
20260904022355 82 202 0.0 1.0 0.00 0.00 0.00 65 1021.2
20260904022321 82 202 0.0 2.0 0.00 0.00 0.00 65 1021.2
20260904022312 82 202 0.0 2.0 0.00 0.00 0.00 65 1021.2
20260904022050 82 202 0.0 2.0 0.00 0.00 0.00 65 1021.1
20260904021951 82 202 0.0 2.0 0.00 0.00 0.00 65 1021.1
20260904021921 82 202 0.0 2.0 0.00 0.00 0.00 65 1021.0
20260904021911 82 202 0.0 2.0 0.00 0.00 0.00 65 1021.1
20260904021649 82 202 0.0 2.0 0.00 0.00 0.00 65 1021.0
20260904021548 82 202 0.0 2.0 0.00 0.00 0.00 65 1021.1
20260904021448 82 202 0.0 2.0 0.00 0.00 0.00 65 1021.1
20260904021346 82 202 0.0 2.0 0.00 0.00 0.00 65 1021.0
20260904021243 82 202 0.0 2.0 0.00 0.00 0.00 65 1021.0
20260904021144 82 202 0.0 2.0 0.00 0.00 0.00 65 1021.0
20260904021042 82 202 0.0 2.0 0.00 0.00 0.00 65 1021.0
20260904020939 82 202 0.0 2.0 0.00 0.00 0.00 65 1021.1
20260904020841 82 202 0.0 2.0 0.00 0.00 0.00 65 1021.1
20260904020738 82 202 0.0 2.0 0.00 0.00 0.00 65 1021.0
20260904020637 82 202 0.0 2.0 0.00 0.00 0.00 65 1021.0
20260904020537 82 202 0.0 2.0 0.00 0.00 0.00 65 1021.1
20260904020435 82 202 0.0 2.0 0.00 0.00 0.00 65 1021.0
20260904020337 82 202 0.0 2.0 0.00 0.00 0.00 65 1021.0
20260904020235 82 202 0.0 2.0 0.00 0.00 0.00 65 1020.9
20260904020134 82 202 0.0 2.0 0.00 0.00 0.00 65 1020.9
20260904020034 82 202 0.0 2.0 0.00 0.00 0.00 65 1021.0
20260904015934 82 202 0.0 2.0 0.00 0.00 0.00 65 1020.9
20260904015836 82 202 0.0 2.0 0.00 0.00 0.00 65 1020.9
20260904015734 82 202 0.0 3.0 0.00 0.00 0.00 65 1020.9
20260904015634 82 202 1.0 3.0 0.00 0.00 0.00 65 1020.9
20260904015629 82 202 1.0 3.0 0.00 0.00 0.00 65 1020.8
20260904015621 82 202 1.0 3.0 0.00 0.00 0.00 65 1020.9
20260904015605 82 202 1.0 3.0 0.00 0.00 0.00 65 1020.9
20260904015431 82 202 1.0 3.0 0.00 0.00 0.00 65 1020.9
20260904015318 82 202 1.0 4.0 0.00 0.00 0.00 65 1020.8
20260904015306 82 202 1.0 3.0 0.00 0.00 0.00 65 1020.8
20260904015244 82 202 1.0 3.0 0.00 0.00 0.00 65 1020.8
20260904014832 82 202 1.0 4.0 0.00 0.00 0.00 65 1020.8
20260904014815 82 196 1.0 4.0 0.00 0.00 0.00 65 1020.8
20260904014801 82 196 1.0 4.0 0.00 0.00 0.00 65 1020.8
20260904014616 82 161 1.0 4.0 0.00 0.00 0.00 65 1020.8
20260904014602 82 196 1.0 4.0 0.00 0.00 0.00 65 1020.8
20260904014330 82 161 1.0 4.0 0.00 0.00 0.00 65 1020.7
20260904014237 82 161 1.0 4.0 0.00 0.00 0.00 65 1020.7
20260904014129 82 161 1.0 4.0 0.00 0.00 0.00 65 1020.8
20260904014031 82 161 1.0 4.0 0.00 0.00 0.00 65 1020.7
20260904013931 82 160 1.0 4.0 0.00 0.00 0.00 65 1020.7
20260904013830 82 160 1.0 4.0 0.00 0.00 0.00 65 1020.6
20260904013730 82 160 1.0 4.0 0.00 0.00 0.00 65 1020.6
20260904013631 83 136 1.0 3.0 0.00 0.00 0.00 64 1020.6
20260904013518 82 136 1.0 3.0 0.00 0.00 0.00 64 1020.6
20260904013418 82 136 1.0 3.0 0.00 0.00 0.00 64 1020.6
20260904013350 82 135 1.0 2.0 0.00 0.00 0.00 64 1020.6
20260904013339 82 135 1.0 2.0 0.00 0.00 0.00 64 1020.6
20260904013147 82 135 1.0 3.0 0.00 0.00 0.00 64 1020.6
20260904013136 82 135 1.0 2.0 0.00 0.00 0.00 64 1020.6
20260904012917 82 135 0.0 3.0 0.00 0.00 0.00 64 1020.7
20260904012818 82 133 0.0 3.0 0.00 0.00 0.00 65 1020.6
20260904012718 82 133 0.0 3.0 0.00 0.00 0.00 65 1020.6
20260904012618 82 209 0.0 3.0 0.00 0.00 0.00 65 1020.6
20260904012518 82 198 0.0 3.0 0.00 0.00 0.00 65 1020.6
20260904012418 82 197 0.0 3.0 0.00 0.00 0.00 65 1020.6
20260904012318 82 199 0.0 3.0 0.00 0.00 0.00 65 1020.6
20260904012218 82 199 0.0 4.0 0.00 0.00 0.00 65 1020.7
20260904012119 82 198 0.0 4.0 0.00 0.00 0.00 65 1020.6
20260904012056 82 172 0.0 4.0 0.00 0.00 0.00 65 1020.6
20260904012048 82 132 0.0 4.0 0.00 0.00 0.00 65 1020.6
20260904011818 82 172 0.0 4.0 0.00 0.00 0.00 65 1020.6
20260904011741 82 178 0.0 4.0 0.00 0.00 0.00 65 1020.6
20260904011732 82 178 0.0 4.0 0.00 0.00 0.00 65 1020.6
20260904011518 82 177 0.0 4.0 0.00 0.00 0.00 65 1020.6
20260904011413 83 178 0.0 4.0 0.00 0.00 0.00 65 1020.6
20260904011347 82 168 0.0 2.0 0.00 0.00 0.00 65 1020.6
20260904011338 82 178 0.0 4.0 0.00 0.00 0.00 65 1020.6
20260904011115 83 168 0.0 2.0 0.00 0.00 0.00 65 1020.6
20260904011014 82 168 0.0 2.0 0.00 0.00 0.00 65 1020.5
20260904010916 83 168 0.0 2.0 0.00 0.00 0.00 64 1020.6
20260904010815 83 200 0.0 2.0 0.00 0.00 0.00 64 1020.5
20260904010751 83 202 0.0 2.0 0.00 0.00 0.00 64 1020.5
20260904010741 83 200 0.0 2.0 0.00 0.00 0.00 64 1020.5
20260904010513 83 202 0.0 2.0 0.00 0.00 0.00 64 1020.5
20260904010414 83 202 0.0 2.0 0.00 0.00 0.00 64 1020.5
20260904010319 83 202 0.0 2.0 0.00 0.00 0.00 64 1020.5
20260904010215 83 202 0.0 2.0 0.00 0.00 0.00 64 1020.5
20260904010115 83 202 0.0 3.0 0.00 0.00 0.00 64 1020.4
20260904010052 83 202 0.0 3.0 0.00 0.00 0.00 64 1020.4
20260904010049 83 202 0.0 3.0 0.00 0.00 0.00 64 1020.4
20260904010036 83 202 0.0 3.0 0.00 0.00 0.00 64 1020.4
20260904010016 83 202 0.0 3.0 0.00 0.00 0.00 64 1020.4
20260904005849 83 202 0.0 3.0 0.00 0.00 0.00 64 1020.4
20260904005516 83 202 0.0 3.0 0.00 0.00 0.00 64 1020.4
20260904005419 83 202 0.0 3.0 0.00 0.00 0.00 64 1020.3
20260904005315 83 200 0.0 3.0 0.00 0.00 0.00 64 1020.4
20260904005213 83 200 0.0 3.0 0.00 0.00 0.00 64 1020.3
20260904005114 83 200 0.0 3.0 0.00 0.00 0.00 64 1020.3
20260904005014 83 200 0.0 3.0 0.00 0.00 0.00 64 1020.3
20260904004915 83 200 0.0 3.0 0.00 0.00 0.00 63 1020.3
20260904004813 83 200 0.0 3.0 0.00 0.00 0.00 64 1020.3
20260904004715 83 200 0.0 3.0 0.00 0.00 0.00 63 1020.3
20260904004613 83 201 0.0 1.0 0.00 0.00 0.00 64 1020.3
20260904004514 83 201 0.0 2.0 0.00 0.00 0.00 64 1020.3
20260904004414 83 201 0.0 2.0 0.00 0.00 0.00 63 1020.3
20260904004345 83 201 0.0 2.0 0.00 0.00 0.00 63 1020.3
20260904004335 83 201 0.0 2.0 0.00 0.00 0.00 64 1020.3
20260904004114 83 201 0.0 2.0 0.00 0.00 0.00 63 1020.3
20260904004050 83 201 0.0 2.0 0.00 0.00 0.00 63 1020.3
20260904004039 83 201 0.0 2.0 0.00 0.00 0.00 63 1020.3
20260904003813 83 201 0.0 2.0 0.00 0.00 0.00 63 1020.3
20260904003715 83 201 0.0 2.0 0.00 0.00 0.00 64 1020.3
20260904003615 83 201 0.0 2.0 0.00 0.00 0.00 64 1020.3
20260904003553 83 201 0.0 2.0 0.00 0.00 0.00 64 1020.2
20260904003541 83 201 0.0 2.0 0.00 0.00 0.00 64 1020.2
20260904003313 83 201 0.0 2.0 0.00 0.00 0.00 64 1020.2
20260904003213 84 201 0.0 2.0 0.00 0.00 0.00 63 1020.2
20260904003113 84 201 0.0 2.0 0.00 0.00 0.00 63 1019.9
20260904003045 84 200 0.0 3.0 0.00 0.00 0.00 63 1019.9
20260904003034 84 201 0.0 2.0 0.00 0.00 0.00 63 1019.9
20260904002813 84 200 0.0 3.0 0.00 0.00 0.00 63 1019.9
20260904002711 84 199 0.0 3.0 0.00 0.00 0.00 63 1019.9
20260904002611 84 199 0.0 3.0 0.00 0.00 0.00 63 1019.9
20260904002543 84 200 0.0 3.0 0.00 0.00 0.00 63 1019.9
20260904002537 84 200 0.0 3.0 0.00 0.00 0.00 63 1019.9
20260904002523 84 199 0.0 3.0 0.00 0.00 0.00 63 1019.9
20260904002501 84 200 0.0 3.0 0.00 0.00 0.00 63 1019.9
20260904002034 84 175 0.0 2.0 0.00 0.00 0.00 63 1019.9
20260904002024 84 193 0.0 3.0 0.00 0.00 0.00 63 1019.9
20260904001802 84 175 0.0 2.0 0.00 0.00 0.00 62 1019.9
20260904001655 84 175 0.0 2.0 0.00 0.00 0.00 62 1019.9
20260904001552 84 175 0.0 3.0 0.00 0.00 0.00 62 1019.9
20260904001524 84 180 0.0 3.0 0.00 0.00 0.00 62 1019.9
20260904001513 84 180 0.0 3.0 0.00 0.00 0.00 62 1019.9
20260904001247 84 180 0.0 3.0 0.00 0.00 0.00 62 1019.9
20260904001139 84 180 0.0 3.0 0.00 0.00 0.00 62 1019.9
20260904001041 84 180 1.0 3.0 0.00 0.00 0.00 62 1019.8
20260904000939 84 180 1.0 3.0 0.00 0.00 0.00 62 1019.9
20260904000913 85 180 1.0 3.0 0.00 0.00 0.00 62 1019.9
20260904000903 84 180 1.0 3.0 0.00 0.00 0.00 62 1019.8
20260904000640 85 180 1.0 3.0 0.00 0.00 0.00 62 1019.9
20260904000539 85 178 1.0 3.0 0.00 0.00 0.00 62 1019.9
20260904000440 85 178 1.0 3.0 0.00 0.00 0.00 62 1019.9
20260904000337 85 178 1.0 3.0 0.00 0.00 0.00 62 1019.9
20260904000234 85 178 1.0 3.0 0.00 0.00 0.00 62 1019.9
20260904000127 85 178 1.0 3.0 0.00 0.00 0.00 62 1019.9
20260904000023 85 178 1.0 3.0 0.00 0.00 0.00 62 1019.9
20260903235923 85 178 1.0 3.0 0.00 0.00 0.00 61 1019.9
20260903235821 85 178 1.0 3.0 0.00 0.00 0.00 61 1019.9
20260903235720 85 178 1.0 3.0 0.00 0.00 0.00 61 1019.9
20260903235616 85 178 1.0 4.0 0.00 0.00 0.00 61 1020.1
20260903235547 85 178 1.0 4.0 0.00 0.00 0.00 61 1020.1
20260903235536 85 178 1.0 4.0 0.00 0.00 0.00 61 1020.1
20260903235313 85 178 0.0 4.0 0.00 0.00 0.00 61 1020.1
20260903235212 85 167 0.0 4.0 0.00 0.00 0.00 61 1020.1
20260903235112 85 167 0.0 4.0 0.00 0.00 0.00 61 1020.1
20260903235009 85 165 0.0 4.0 0.00 0.00 0.00 60 1020.1
20260903234910 85 165 1.0 4.0 0.00 0.00 0.00 61 1019.9
20260903234807 85 165 0.0 4.0 0.00 0.00 0.00 60 1020.1
20260903234706 85 165 0.0 4.0 0.00 0.00 0.00 61 1019.9
20260903234551 85 174 0.0 3.0 0.00 0.00 0.00 61 1019.9
20260903234451 85 88 0.0 3.0 0.00 0.00 0.00 60 1019.9
20260903234359 85 88 0.0 3.0 0.00 0.00 0.00 61 1019.9
20260903234249 85 88 1.0 3.0 0.00 0.00 0.00 61 1019.9
20260903234148 85 88 1.0 3.0 0.00 0.00 0.00 61 1019.9
20260903234051 85 87 1.0 3.0 0.00 0.00 0.00 61 1019.9
20260903233952 85 86 1.0 4.0 0.00 0.00 0.00 61 1019.9
20260903233846 85 188 1.0 4.0 0.00 0.00 0.00 60 1019.9
20260903233743 85 188 1.0 4.0 0.00 0.00 0.00 61 1019.8
20260903233641 85 186 1.0 4.0 0.00 0.00 0.00 61 1019.9
20260903233613 85 219 1.0 4.0 0.00 0.00 0.00 60 1019.9
20260903233602 85 186 1.0 4.0 0.00 0.00 0.00 61 1019.8
20260903233337 85 219 1.0 4.0 0.00 0.00 0.00 61 1019.9
20260903233237 86 219 1.0 4.0 0.00 0.00 0.00 61 1019.8
20260903233136 86 219 1.0 4.0 0.00 0.00 0.00 61 1019.9
20260903233021 86 192 1.0 4.0 0.00 0.00 0.00 60 1019.9
20260903232922 86 192 1.0 2.0 0.00 0.00 0.00 61 1019.9
20260903232821 86 192 1.0 2.0 0.00 0.00 0.00 61 1019.9
20260903232723 86 194 1.0 2.0 0.00 0.00 0.00 60 1019.9
20260903232652 86 187 1.0 6.0 0.00 0.00 0.00 60 1019.7
20260903232638 86 149 1.0 3.0 0.00 0.00 0.00 60 1019.7
20260903232420 86 187 1.0 6.0 0.00 0.00 0.00 60 1019.8
20260903232318 86 187 0.0 6.0 0.00 0.00 0.00 60 1019.7
20260903232215 87 205 1.0 6.0 0.00 0.00 0.00 59 1019.7
20260903232117 87 205 1.0 6.0 0.00 0.00 0.00 60 1019.7
20260903232012 87 205 1.0 6.0 0.00 0.00 0.00 60 1019.7
20260903231910 87 205 1.0 6.0 0.00 0.00 0.00 60 1019.7
20260903231814 87 205 1.0 6.0 0.00 0.00 0.00 59 1019.8
20260903231709 87 205 1.0 6.0 0.00 0.00 0.00 59 1019.8
20260903231613 87 209 1.0 6.0 0.00 0.00 0.00 59 1019.8
20260903231501 87 98 1.0 4.0 0.00 0.00 0.00 59 1019.7
20260903231400 87 98 1.0 4.0 0.00 0.00 0.00 59 1019.7
20260903231259 87 98 1.0 4.0 0.00 0.00 0.00 59 1019.7
20260903231159 87 98 1.0 4.0 0.00 0.00 0.00 59 1019.6
20260903231056 87 98 1.0 4.0 0.00 0.00 0.00 58 1019.7
20260903230951 88 158 1.0 4.0 0.00 0.00 0.00 58 1019.6
20260903230851 88 167 1.0 4.0 0.00 0.00 0.00 58 1019.6
20260903230748 88 130 1.0 4.0 0.00 0.00 0.00 58 1019.7
20260903230650 88 130 1.0 4.0 0.00 0.00 0.00 58 1019.7
20260903230550 88 169 1.0 4.0 0.00 0.00 0.00 58 1019.7
20260903230450 88 169 1.0 4.0 0.00 0.00 0.00 58 1019.7
20260903230421 88 155 1.0 3.0 0.00 0.00 0.00 58 1019.7
20260903230408 88 169 1.0 2.0 0.00 0.00 0.00 58 1019.7
20260903230148 88 173 1.0 3.0 0.00 0.00 0.00 57 1019.6
20260903230044 88 165 1.0 5.0 0.00 0.00 0.00 57 1019.6
20260903225933 88 165 1.0 5.0 0.00 0.00 0.00 57 1019.7
20260903225854 89 165 1.0 5.0 0.00 0.00 0.00 57 1019.6
20260903225848 89 165 1.0 5.0 0.00 0.00 0.00 57 1019.6
20260903225834 88 165 1.0 5.0 0.00 0.00 0.00 57 1019.6
20260903225813 88 165 1.0 5.0 0.00 0.00 0.00 56 1019.7
20260903225741 88 165 1.0 5.0 0.00 0.00 0.00 56 1019.6
20260903225332 89 167 0.0 5.0 0.00 0.00 0.00 55 1019.6
20260903225247 89 221 0.0 3.0 0.00 0.00 0.00 55 1019.6
20260903225233 89 173 1.0 5.0 0.00 0.00 0.00 55 1019.6
20260903225212 89 173 1.0 5.0 0.00 0.00 0.00 55 1019.5
20260903224943 89 221 1.0 3.0 0.00 0.00 0.00 55 1019.6
20260903224833 89 227 1.0 3.0 0.00 0.00 0.00 55 1019.5
20260903224734 89 227 1.0 3.0 0.00 0.00 0.00 55 1019.5
20260903224631 89 227 1.0 3.0 0.00 0.00 0.00 54 1019.5
20260903224528 89 227 1.0 3.0 0.00 0.00 0.00 53 1019.5
20260903224428 89 227 1.0 3.0 0.00 0.00 0.00 53 1019.5
20260903224329 89 227 1.0 3.0 0.00 0.00 0.00 54 1019.5
20260903224307 89 69 1.0 3.0 0.00 0.00 0.00 53 1019.5
20260903224255 89 71 1.0 3.0 0.00 0.00 0.00 53 1019.4
20260903224024 89 49 1.0 3.0 0.00 0.00 0.00 53 1019.4
20260903223928 89 49 1.0 3.0 0.00 0.00 0.00 52 1019.4
20260903223912 89 49 2.0 3.0 0.00 0.00 0.00 52 1019.5
20260903223905 89 49 1.0 3.0 0.00 0.00 0.00 52 1019.5
20260903223851 89 49 1.0 3.0 0.00 0.00 0.00 53 1019.5
20260903223825 89 49 1.0 3.0 0.00 0.00 0.00 52 1019.5
20260903223540 89 49 1.0 3.0 0.00 0.00 0.00 52 1019.4
20260903223527 89 49 1.0 3.0 0.00 0.00 0.00 52 1019.5
20260903223516 89 49 1.0 3.0 0.00 0.00 0.00 51 1019.5
20260903223511 89 49 1.0 3.0 0.00 0.00 0.00 52 1019.5
20260903223505 89 49 1.0 3.0 0.00 0.00 0.00 51 1019.5
20260903223457 89 49 1.0 3.0 0.00 0.00 0.00 51 1019.5
20260903223444 89 49 1.0 3.0 0.00 0.00 0.00 52 1019.5
20260903223420 89 49 1.0 3.0 0.00 0.00 0.00 51 1019.5
20260903223259 89 49 1.0 3.0 0.00 0.00 0.00 51 1019.5
20260903223240 89 49 1.0 3.0 0.00 0.00 0.00 51 1019.5
20260903223054 89 49 1.0 3.0 0.00 0.00 0.00 51 1019.5
20260903222901 89 49 1.0 3.0 0.00 0.00 0.00 52 1019.5
20260903222842 89 49 1.0 3.0 0.00 0.00 0.00 52 1019.5
20260903222433 89 49 1.0 3.0 0.00 0.00 0.00 51 1019.5
20260903222414 89 49 1.0 3.0 0.00 0.00 0.00 52 1019.5
20260903222106 89 49 1.0 3.0 0.00 0.00 0.00 51 1019.5
20260903222049 89 49 2.0 4.0 0.00 0.00 0.00 52 1019.5
20260903222032 89 49 2.0 3.0 0.00 0.00 0.00 52 1019.5
20260903221955 89 49 2.0 3.0 0.00 0.00 0.00 51 1019.5
20260903221607 89 49 2.0 4.0 0.00 0.00 0.00 52 1019.5
20260903221501 89 49 2.0 4.0 0.00 0.00 0.00 52 1019.4
20260903221401 89 49 2.0 4.0 0.00 0.00 0.00 53 1019.5
20260903221259 89 49 1.0 4.0 0.00 0.00 0.00 53 1019.4
20260903221235 89 49 1.0 4.0 0.00 0.00 0.00 52 1019.4
20260903221224 89 49 1.0 4.0 0.00 0.00 0.00 53 1019.4
20260903221154 89 49 1.0 4.0 0.00 0.00 0.00 51 1019.4